<?xml version="1.0" encoding="UTF-8" standalone="no" ?>
<gpx xmlns="http://www.topografix.com/GPX/1/1" xmlns:xsi="http://www.w3.org/2001/XMLSchema-instance" xsi:schemaLocation="http://www.topografix.com/GPX/1/1 http://www.topografix.com/GPX/1/1/gpx.xsd" version="1.1" creator="VisuGPX - https://www.visugpx.com">
  <metadata>
    <name>Luz St Sauveur / Luz Ardiden / Luz St Sauveur  Moyenne 10.5 km/h validée</name>
    <desc><![CDATA[Moyenne 10.5 Km/h temps 1H30 x2 (aller/retour)]]></desc>
  </metadata>
  <trk>
    <name><![CDATA[Luz St Sauveur / Luz Ardiden_1]]></name>
    <extensions>
      <line xmlns="http://www.topografix.com/GPX/gpx_style/0/2">
        <color>0000FF</color>
        <width>4</width>
      </line>
    </extensions>
    <trkseg>
      <trkpt lat="42.87185" lon="-0.00322">
        <ele>716</ele>
        <time>2024-07-24T22:00:00.000Z</time>
      </trkpt>
      <trkpt lat="42.87194" lon="-0.00328">
        <ele>715.4</ele>
        <time>2024-07-24T22:00:02.369Z</time>
      </trkpt>
      <trkpt lat="42.87217" lon="-0.00349">
        <ele>713.1</ele>
        <time>2024-07-24T22:00:08.914Z</time>
      </trkpt>
      <trkpt lat="42.87217" lon="-0.00378">
        <ele>711.5</ele>
        <time>2024-07-24T22:00:13.940Z</time>
      </trkpt>
      <trkpt lat="42.87219" lon="-0.00397">
        <ele>710.4</ele>
        <time>2024-07-24T22:00:17.267Z</time>
      </trkpt>
      <trkpt lat="42.87226" lon="-0.00436">
        <ele>707.6</ele>
        <time>2024-07-24T22:00:24.226Z</time>
      </trkpt>
      <trkpt lat="42.87237" lon="-0.00476">
        <ele>705.7</ele>
        <time>2024-07-24T22:00:31.631Z</time>
      </trkpt>
      <trkpt lat="42.87232" lon="-0.00485">
        <ele>705.1</ele>
        <time>2024-07-24T22:00:33.589Z</time>
        <extensions>
          <visugpx:TrkExtension xmlns:visugpx="https://www.visugpx.com/editgpx/">
            <visugpx:node>1</visugpx:node>
            </visugpx:TrkExtension>
        </extensions>
      </trkpt>
      <trkpt lat="42.87162" lon="-0.00594">
        <ele>700</ele>
        <time>2024-07-24T22:00:58.708Z</time>
      </trkpt>
      <trkpt lat="42.86958" lon="-0.00924">
        <ele>689.2</ele>
        <time>2024-07-24T22:02:15.864Z</time>
      </trkpt>
      <trkpt lat="42.86951" lon="-0.00935">
        <ele>688.4</ele>
        <time>2024-07-24T22:02:18.389Z</time>
      </trkpt>
      <trkpt lat="42.86932" lon="-0.00958">
        <ele>687</ele>
        <time>2024-07-24T22:02:24.396Z</time>
        <extensions>
          <visugpx:TrkExtension xmlns:visugpx="https://www.visugpx.com/editgpx/">
            <visugpx:node>2</visugpx:node>
            </visugpx:TrkExtension>
        </extensions>
      </trkpt>
      <trkpt lat="42.86923" lon="-0.00965">
        <ele>686.3</ele>
        <time>2024-07-24T22:02:26.846Z</time>
      </trkpt>
      <trkpt lat="42.86907" lon="-0.00971">
        <ele>684.9</ele>
        <time>2024-07-24T22:02:30.770Z</time>
      </trkpt>
      <trkpt lat="42.86825" lon="-0.00981">
        <ele>683</ele>
        <time>2024-07-24T22:02:51.516Z</time>
      </trkpt>
      <trkpt lat="42.86786" lon="-0.00988">
        <ele>683.1</ele>
        <time>2024-07-24T22:03:02.232Z</time>
        <extensions>
          <visugpx:TrkExtension xmlns:visugpx="https://www.visugpx.com/editgpx/">
            <visugpx:node>3</visugpx:node>
            </visugpx:TrkExtension>
        </extensions>
      </trkpt>
      <trkpt lat="42.8676" lon="-0.01051">
        <ele>677.1</ele>
        <time>2024-07-24T22:03:14.764Z</time>
        <extensions>
          <visugpx:TrkExtension xmlns:visugpx="https://www.visugpx.com/editgpx/">
            <visugpx:node>4</visugpx:node>
            </visugpx:TrkExtension>
        </extensions>
      </trkpt>
      <trkpt lat="42.86755" lon="-0.0107">
        <ele>678.6</ele>
        <time>2024-07-24T22:03:20.341Z</time>
      </trkpt>
      <trkpt lat="42.86752" lon="-0.01094">
        <ele>680.9</ele>
        <time>2024-07-24T22:03:27.759Z</time>
      </trkpt>
      <trkpt lat="42.86751" lon="-0.01118">
        <ele>684.1</ele>
        <time>2024-07-24T22:03:36.674Z</time>
      </trkpt>
      <trkpt lat="42.86754" lon="-0.01139">
        <ele>687</ele>
        <time>2024-07-24T22:03:44.710Z</time>
      </trkpt>
      <trkpt lat="42.86757" lon="-0.01149">
        <ele>688.1</ele>
        <time>2024-07-24T22:03:48.124Z</time>
      </trkpt>
      <trkpt lat="42.86766" lon="-0.01167">
        <ele>689</ele>
        <time>2024-07-24T22:03:53.290Z</time>
      </trkpt>
      <trkpt lat="42.86804" lon="-0.01225">
        <ele>689.8</ele>
        <time>2024-07-24T22:04:09.388Z</time>
      </trkpt>
      <trkpt lat="42.86807" lon="-0.01242">
        <ele>691.6</ele>
        <time>2024-07-24T22:04:14.944Z</time>
      </trkpt>
      <trkpt lat="42.86803" lon="-0.01258">
        <ele>694.5</ele>
        <time>2024-07-24T22:04:22.653Z</time>
      </trkpt>
      <trkpt lat="42.86805" lon="-0.01261">
        <ele>694.3</ele>
        <time>2024-07-24T22:04:23.356Z</time>
      </trkpt>
      <trkpt lat="42.86805" lon="-0.01266">
        <ele>694.9</ele>
        <time>2024-07-24T22:04:25.088Z</time>
      </trkpt>
      <trkpt lat="42.86803" lon="-0.01269">
        <ele>695.7</ele>
        <time>2024-07-24T22:04:27.223Z</time>
        <extensions>
          <visugpx:TrkExtension xmlns:visugpx="https://www.visugpx.com/editgpx/">
            <visugpx:node>5</visugpx:node>
            </visugpx:TrkExtension>
        </extensions>
      </trkpt>
      <trkpt lat="42.86797" lon="-0.01269">
        <ele>697.2</ele>
        <time>2024-07-24T22:04:31.207Z</time>
      </trkpt>
      <trkpt lat="42.86795" lon="-0.01262">
        <ele>697</ele>
        <time>2024-07-24T22:04:32.541Z</time>
      </trkpt>
      <trkpt lat="42.86783" lon="-0.01257">
        <ele>699.4</ele>
        <time>2024-07-24T22:04:39.131Z</time>
      </trkpt>
      <trkpt lat="42.86758" lon="-0.01217">
        <ele>699.5</ele>
        <time>2024-07-24T22:04:49.628Z</time>
      </trkpt>
      <trkpt lat="42.86752" lon="-0.01211">
        <ele>699.9</ele>
        <time>2024-07-24T22:04:52.014Z</time>
      </trkpt>
      <trkpt lat="42.86722" lon="-0.01194">
        <ele>703</ele>
        <time>2024-07-24T22:05:04.009Z</time>
      </trkpt>
      <trkpt lat="42.86689" lon="-0.01154">
        <ele>705.6</ele>
        <time>2024-07-24T22:05:18.409Z</time>
      </trkpt>
      <trkpt lat="42.86682" lon="-0.01149">
        <ele>706.2</ele>
        <time>2024-07-24T22:05:21.138Z</time>
      </trkpt>
      <trkpt lat="42.86675" lon="-0.01147">
        <ele>707.1</ele>
        <time>2024-07-24T22:05:24.079Z</time>
      </trkpt>
      <trkpt lat="42.86664" lon="-0.01147">
        <ele>709</ele>
        <time>2024-07-24T22:05:29.458Z</time>
      </trkpt>
      <trkpt lat="42.86663" lon="-0.01153">
        <ele>710.3</ele>
        <time>2024-07-24T22:05:32.965Z</time>
      </trkpt>
      <trkpt lat="42.86659" lon="-0.01154">
        <ele>711.4</ele>
        <time>2024-07-24T22:05:35.903Z</time>
      </trkpt>
      <trkpt lat="42.86657" lon="-0.01153">
        <ele>711.6</ele>
        <time>2024-07-24T22:05:36.685Z</time>
      </trkpt>
      <trkpt lat="42.86656" lon="-0.01147">
        <ele>710.4</ele>
        <time>2024-07-24T22:05:37.752Z</time>
        <extensions>
          <visugpx:TrkExtension xmlns:visugpx="https://www.visugpx.com/editgpx/">
            <visugpx:node>6</visugpx:node>
            </visugpx:TrkExtension>
        </extensions>
      </trkpt>
      <trkpt lat="42.86659" lon="-0.01144">
        <ele>709.2</ele>
        <time>2024-07-24T22:05:38.631Z</time>
      </trkpt>
      <trkpt lat="42.86663" lon="-0.01145">
        <ele>708.7</ele>
        <time>2024-07-24T22:05:39.593Z</time>
      </trkpt>
      <trkpt lat="42.86664" lon="-0.01147">
        <ele>709</ele>
        <time>2024-07-24T22:05:40.449Z</time>
      </trkpt>
      <trkpt lat="42.86663" lon="-0.01153">
        <ele>710.3</ele>
        <time>2024-07-24T22:05:43.956Z</time>
      </trkpt>
      <trkpt lat="42.86661" lon="-0.01154">
        <ele>711</ele>
        <time>2024-07-24T22:05:45.916Z</time>
      </trkpt>
      <trkpt lat="42.86661" lon="-0.01169">
        <ele>714.4</ele>
        <time>2024-07-24T22:05:55.249Z</time>
      </trkpt>
      <trkpt lat="42.86665" lon="-0.01177">
        <ele>715.6</ele>
        <time>2024-07-24T22:05:58.673Z</time>
      </trkpt>
      <trkpt lat="42.86714" lon="-0.01219">
        <ele>708.6</ele>
        <time>2024-07-24T22:06:12.358Z</time>
      </trkpt>
      <trkpt lat="42.86719" lon="-0.01225">
        <ele>708.2</ele>
        <time>2024-07-24T22:06:13.933Z</time>
      </trkpt>
      <trkpt lat="42.86726" lon="-0.01257">
        <ele>711.2</ele>
        <time>2024-07-24T22:06:23.878Z</time>
      </trkpt>
      <trkpt lat="42.86732" lon="-0.01276">
        <ele>712.6</ele>
        <time>2024-07-24T22:06:29.417Z</time>
      </trkpt>
      <trkpt lat="42.86735" lon="-0.01283">
        <ele>713.4</ele>
        <time>2024-07-24T22:06:31.940Z</time>
      </trkpt>
      <trkpt lat="42.86747" lon="-0.01298">
        <ele>714</ele>
        <time>2024-07-24T22:06:36.880Z</time>
      </trkpt>
      <trkpt lat="42.86764" lon="-0.01314">
        <ele>715.2</ele>
        <time>2024-07-24T22:06:43.600Z</time>
      </trkpt>
      <trkpt lat="42.86783" lon="-0.01328">
        <ele>716.4</ele>
        <time>2024-07-24T22:06:50.567Z</time>
      </trkpt>
      <trkpt lat="42.86812" lon="-0.01338">
        <ele>716.1</ele>
        <time>2024-07-24T22:06:58.407Z</time>
      </trkpt>
      <trkpt lat="42.86836" lon="-0.01344">
        <ele>715.6</ele>
        <time>2024-07-24T22:07:04.604Z</time>
      </trkpt>
      <trkpt lat="42.86844" lon="-0.01349">
        <ele>716.6</ele>
        <time>2024-07-24T22:07:08.067Z</time>
      </trkpt>
      <trkpt lat="42.86855" lon="-0.01353">
        <ele>716.5</ele>
        <time>2024-07-24T22:07:11.063Z</time>
      </trkpt>
      <trkpt lat="42.86864" lon="-0.0136">
        <ele>717.9</ele>
        <time>2024-07-24T22:07:15.468Z</time>
      </trkpt>
      <trkpt lat="42.86887" lon="-0.01383">
        <ele>720.6</ele>
        <time>2024-07-24T22:07:25.970Z</time>
      </trkpt>
      <trkpt lat="42.86899" lon="-0.01392">
        <ele>720.4</ele>
        <time>2024-07-24T22:07:29.510Z</time>
      </trkpt>
      <trkpt lat="42.86908" lon="-0.01402">
        <ele>721.1</ele>
        <time>2024-07-24T22:07:33.314Z</time>
      </trkpt>
      <trkpt lat="42.86941" lon="-0.0145">
        <ele>726.1</ele>
        <time>2024-07-24T22:07:51.642Z</time>
      </trkpt>
      <trkpt lat="42.8699" lon="-0.01509">
        <ele>734.8</ele>
        <time>2024-07-24T22:08:19.228Z</time>
      </trkpt>
      <trkpt lat="42.87005" lon="-0.0152">
        <ele>735.3</ele>
        <time>2024-07-24T22:08:24.275Z</time>
      </trkpt>
      <trkpt lat="42.87042" lon="-0.01541">
        <ele>733.3</ele>
        <time>2024-07-24T22:08:33.752Z</time>
        <extensions>
          <visugpx:TrkExtension xmlns:visugpx="https://www.visugpx.com/editgpx/">
            <visugpx:node>7</visugpx:node>
            </visugpx:TrkExtension>
        </extensions>
      </trkpt>
      <trkpt lat="42.87051" lon="-0.01547">
        <ele>732.9</ele>
        <time>2024-07-24T22:08:36.153Z</time>
      </trkpt>
      <trkpt lat="42.8718" lon="-0.01681">
        <ele>744.2</ele>
        <time>2024-07-24T22:09:30.984Z</time>
      </trkpt>
      <trkpt lat="42.87264" lon="-0.01755">
        <ele>749.6</ele>
        <time>2024-07-24T22:10:03.080Z</time>
      </trkpt>
      <trkpt lat="42.8735" lon="-0.01823">
        <ele>762</ele>
        <time>2024-07-24T22:10:43.786Z</time>
      </trkpt>
      <trkpt lat="42.87377" lon="-0.01847">
        <ele>766.2</ele>
        <time>2024-07-24T22:10:57.251Z</time>
      </trkpt>
      <trkpt lat="42.87387" lon="-0.01854">
        <ele>766.6</ele>
        <time>2024-07-24T22:11:00.649Z</time>
      </trkpt>
      <trkpt lat="42.87414" lon="-0.01864">
        <ele>762.6</ele>
        <time>2024-07-24T22:11:07.265Z</time>
      </trkpt>
      <trkpt lat="42.87437" lon="-0.01878">
        <ele>762.7</ele>
        <time>2024-07-24T22:11:14.156Z</time>
      </trkpt>
      <trkpt lat="42.87451" lon="-0.01892">
        <ele>765.3</ele>
        <time>2024-07-24T22:11:21.944Z</time>
        <extensions>
          <visugpx:TrkExtension xmlns:visugpx="https://www.visugpx.com/editgpx/">
            <visugpx:node>8</visugpx:node>
            </visugpx:TrkExtension>
        </extensions>
      </trkpt>
      <trkpt lat="42.87469" lon="-0.01912">
        <ele>769.7</ele>
        <time>2024-07-24T22:11:34.054Z</time>
      </trkpt>
      <trkpt lat="42.87498" lon="-0.01929">
        <ele>767.5</ele>
        <time>2024-07-24T22:11:41.519Z</time>
      </trkpt>
      <trkpt lat="42.87538" lon="-0.01973">
        <ele>775.4</ele>
        <time>2024-07-24T22:12:04.916Z</time>
      </trkpt>
      <trkpt lat="42.87552" lon="-0.01978">
        <ele>772.9</ele>
        <time>2024-07-24T22:12:08.338Z</time>
      </trkpt>
      <trkpt lat="42.87604" lon="-0.01988">
        <ele>770.3</ele>
        <time>2024-07-24T22:12:20.758Z</time>
      </trkpt>
      <trkpt lat="42.87624" lon="-0.01995">
        <ele>771.2</ele>
        <time>2024-07-24T22:12:27.163Z</time>
      </trkpt>
      <trkpt lat="42.8766" lon="-0.02011">
        <ele>773.3</ele>
        <time>2024-07-24T22:12:39.375Z</time>
      </trkpt>
      <trkpt lat="42.87706" lon="-0.02049">
        <ele>784</ele>
        <time>2024-07-24T22:13:08.477Z</time>
      </trkpt>
      <trkpt lat="42.87717" lon="-0.02052">
        <ele>784.6</ele>
        <time>2024-07-24T22:13:12.072Z</time>
      </trkpt>
      <trkpt lat="42.87725" lon="-0.02051">
        <ele>783.7</ele>
        <time>2024-07-24T22:13:13.972Z</time>
      </trkpt>
      <trkpt lat="42.87734" lon="-0.02047">
        <ele>781.7</ele>
        <time>2024-07-24T22:13:16.211Z</time>
      </trkpt>
      <trkpt lat="42.87742" lon="-0.02038">
        <ele>777.2</ele>
        <time>2024-07-24T22:13:18.663Z</time>
      </trkpt>
      <trkpt lat="42.8775" lon="-0.02034">
        <ele>775.1</ele>
        <time>2024-07-24T22:13:20.677Z</time>
      </trkpt>
      <trkpt lat="42.8776" lon="-0.02035">
        <ele>776.4</ele>
        <time>2024-07-24T22:13:24.857Z</time>
      </trkpt>
      <trkpt lat="42.87787" lon="-0.02052">
        <ele>786.7</ele>
        <time>2024-07-24T22:13:54.306Z</time>
        <extensions>
          <visugpx:TrkExtension xmlns:visugpx="https://www.visugpx.com/editgpx/">
            <visugpx:node>9</visugpx:node>
            </visugpx:TrkExtension>
        </extensions>
      </trkpt>
      <trkpt lat="42.87796" lon="-0.02052">
        <ele>787.1</ele>
        <time>2024-07-24T22:13:57.106Z</time>
      </trkpt>
      <trkpt lat="42.87811" lon="-0.02044">
        <ele>784.6</ele>
        <time>2024-07-24T22:14:00.914Z</time>
      </trkpt>
      <trkpt lat="42.87818" lon="-0.02042">
        <ele>784.1</ele>
        <time>2024-07-24T22:14:02.606Z</time>
      </trkpt>
      <trkpt lat="42.87826" lon="-0.02042">
        <ele>784.4</ele>
        <time>2024-07-24T22:14:05.039Z</time>
      </trkpt>
      <trkpt lat="42.87859" lon="-0.02067">
        <ele>788.4</ele>
        <time>2024-07-24T22:14:19.499Z</time>
      </trkpt>
      <trkpt lat="42.87904" lon="-0.02095">
        <ele>791</ele>
        <time>2024-07-24T22:14:35.299Z</time>
      </trkpt>
      <trkpt lat="42.87941" lon="-0.02123">
        <ele>794.4</ele>
        <time>2024-07-24T22:14:50.133Z</time>
      </trkpt>
      <trkpt lat="42.87953" lon="-0.02137">
        <ele>796.4</ele>
        <time>2024-07-24T22:14:56.644Z</time>
      </trkpt>
      <trkpt lat="42.87976" lon="-0.02178">
        <ele>804.3</ele>
        <time>2024-07-24T22:15:17.926Z</time>
      </trkpt>
      <trkpt lat="42.88005" lon="-0.02197">
        <ele>799</ele>
        <time>2024-07-24T22:15:25.534Z</time>
      </trkpt>
      <trkpt lat="42.88037" lon="-0.02237">
        <ele>809.7</ele>
        <time>2024-07-24T22:15:53.943Z</time>
        <extensions>
          <visugpx:TrkExtension xmlns:visugpx="https://www.visugpx.com/editgpx/">
            <visugpx:node>10</visugpx:node>
            </visugpx:TrkExtension>
        </extensions>
      </trkpt>
      <trkpt lat="42.88041" lon="-0.0224">
        <ele>811.2</ele>
        <time>2024-07-24T22:15:58.143Z</time>
      </trkpt>
      <trkpt lat="42.88052" lon="-0.02241">
        <ele>812.2</ele>
        <time>2024-07-24T22:16:02.148Z</time>
      </trkpt>
      <trkpt lat="42.88058" lon="-0.02235">
        <ele>811.2</ele>
        <time>2024-07-24T22:16:03.907Z</time>
      </trkpt>
      <trkpt lat="42.88067" lon="-0.02204">
        <ele>805.8</ele>
        <time>2024-07-24T22:16:09.686Z</time>
      </trkpt>
      <trkpt lat="42.88072" lon="-0.022">
        <ele>806.5</ele>
        <time>2024-07-24T22:16:12.026Z</time>
      </trkpt>
      <trkpt lat="42.88082" lon="-0.02195">
        <ele>808.7</ele>
        <time>2024-07-24T22:16:17.964Z</time>
      </trkpt>
      <trkpt lat="42.88111" lon="-0.02188">
        <ele>809.8</ele>
        <time>2024-07-24T22:16:26.918Z</time>
      </trkpt>
      <trkpt lat="42.88141" lon="-0.02166">
        <ele>812.3</ele>
        <time>2024-07-24T22:16:38.581Z</time>
      </trkpt>
      <trkpt lat="42.88157" lon="-0.02149">
        <ele>812.9</ele>
        <time>2024-07-24T22:16:44.594Z</time>
      </trkpt>
      <trkpt lat="42.88172" lon="-0.02141">
        <ele>813.3</ele>
        <time>2024-07-24T22:16:49.298Z</time>
      </trkpt>
      <trkpt lat="42.8818" lon="-0.0214">
        <ele>813.2</ele>
        <time>2024-07-24T22:16:51.389Z</time>
      </trkpt>
      <trkpt lat="42.88185" lon="-0.02142">
        <ele>813.6</ele>
        <time>2024-07-24T22:16:53.193Z</time>
      </trkpt>
      <trkpt lat="42.88192" lon="-0.02155">
        <ele>816.4</ele>
        <time>2024-07-24T22:17:00.633Z</time>
      </trkpt>
      <trkpt lat="42.88205" lon="-0.02201">
        <ele>820.7</ele>
        <time>2024-07-24T22:17:15.127Z</time>
      </trkpt>
      <trkpt lat="42.88208" lon="-0.02231">
        <ele>822.8</ele>
        <time>2024-07-24T22:17:23.297Z</time>
        <extensions>
          <visugpx:TrkExtension xmlns:visugpx="https://www.visugpx.com/editgpx/">
            <visugpx:node>11</visugpx:node>
            </visugpx:TrkExtension>
        </extensions>
      </trkpt>
      <trkpt lat="42.88212" lon="-0.02269">
        <ele>826.7</ele>
        <time>2024-07-24T22:17:35.413Z</time>
      </trkpt>
      <trkpt lat="42.88205" lon="-0.02275">
        <ele>827.9</ele>
        <time>2024-07-24T22:17:39.059Z</time>
      </trkpt>
      <trkpt lat="42.88196" lon="-0.02277">
        <ele>828.8</ele>
        <time>2024-07-24T22:17:42.464Z</time>
      </trkpt>
      <trkpt lat="42.88106" lon="-0.0228">
        <ele>830.2</ele>
        <time>2024-07-24T22:18:08.002Z</time>
      </trkpt>
      <trkpt lat="42.88069" lon="-0.02284">
        <ele>827.5</ele>
        <time>2024-07-24T22:18:16.780Z</time>
      </trkpt>
      <trkpt lat="42.88061" lon="-0.02289">
        <ele>828</ele>
        <time>2024-07-24T22:18:19.631Z</time>
      </trkpt>
      <trkpt lat="42.8806" lon="-0.02299">
        <ele>830.8</ele>
        <time>2024-07-24T22:18:27.967Z</time>
      </trkpt>
      <trkpt lat="42.88061" lon="-0.023">
        <ele>831.4</ele>
        <time>2024-07-24T22:18:29.726Z</time>
        <extensions>
          <visugpx:TrkExtension xmlns:visugpx="https://www.visugpx.com/editgpx/">
            <visugpx:node>12</visugpx:node>
            </visugpx:TrkExtension>
        </extensions>
      </trkpt>
      <trkpt lat="42.88066" lon="-0.02304">
        <ele>833.4</ele>
        <time>2024-07-24T22:18:35.436Z</time>
      </trkpt>
      <trkpt lat="42.88077" lon="-0.02307">
        <ele>836.3</ele>
        <time>2024-07-24T22:18:43.148Z</time>
      </trkpt>
      <trkpt lat="42.88088" lon="-0.02306">
        <ele>837.5</ele>
        <time>2024-07-24T22:18:47.414Z</time>
      </trkpt>
      <trkpt lat="42.88097" lon="-0.02308">
        <ele>838.8</ele>
        <time>2024-07-24T22:18:51.398Z</time>
      </trkpt>
      <trkpt lat="42.88183" lon="-0.0235">
        <ele>846.9</ele>
        <time>2024-07-24T22:19:24.348Z</time>
      </trkpt>
      <trkpt lat="42.88192" lon="-0.02356">
        <ele>847</ele>
        <time>2024-07-24T22:19:27.140Z</time>
      </trkpt>
      <trkpt lat="42.88199" lon="-0.02366">
        <ele>848.4</ele>
        <time>2024-07-24T22:19:31.497Z</time>
      </trkpt>
      <trkpt lat="42.88212" lon="-0.02395">
        <ele>854</ele>
        <time>2024-07-24T22:19:46.430Z</time>
      </trkpt>
      <trkpt lat="42.88211" lon="-0.024">
        <ele>855.6</ele>
        <time>2024-07-24T22:19:51.440Z</time>
        <extensions>
          <visugpx:TrkExtension xmlns:visugpx="https://www.visugpx.com/editgpx/">
            <visugpx:node>13</visugpx:node>
            </visugpx:TrkExtension>
        </extensions>
      </trkpt>
      <trkpt lat="42.88205" lon="-0.02404">
        <ele>858.1</ele>
        <time>2024-07-24T22:19:58.844Z</time>
      </trkpt>
      <trkpt lat="42.882" lon="-0.024">
        <ele>858</ele>
        <time>2024-07-24T22:20:00.330Z</time>
      </trkpt>
      <trkpt lat="42.88189" lon="-0.02385">
        <ele>856</ele>
        <time>2024-07-24T22:20:04.007Z</time>
      </trkpt>
      <trkpt lat="42.8818" lon="-0.02381">
        <ele>856.7</ele>
        <time>2024-07-24T22:20:07.255Z</time>
      </trkpt>
      <trkpt lat="42.88149" lon="-0.02376">
        <ele>861</ele>
        <time>2024-07-24T22:20:20.655Z</time>
      </trkpt>
      <trkpt lat="42.88141" lon="-0.02377">
        <ele>862.8</ele>
        <time>2024-07-24T22:20:25.457Z</time>
      </trkpt>
      <trkpt lat="42.88137" lon="-0.02383">
        <ele>865.3</ele>
        <time>2024-07-24T22:20:33.279Z</time>
      </trkpt>
      <trkpt lat="42.88136" lon="-0.0239">
        <ele>867.7</ele>
        <time>2024-07-24T22:20:40.695Z</time>
      </trkpt>
      <trkpt lat="42.88142" lon="-0.02395">
        <ele>868.6</ele>
        <time>2024-07-24T22:20:43.608Z</time>
      </trkpt>
      <trkpt lat="42.88166" lon="-0.024">
        <ele>865.7</ele>
        <time>2024-07-24T22:20:49.349Z</time>
      </trkpt>
      <trkpt lat="42.88177" lon="-0.02409">
        <ele>866</ele>
        <time>2024-07-24T22:20:53.079Z</time>
      </trkpt>
      <trkpt lat="42.88182" lon="-0.02424">
        <ele>869.8</ele>
        <time>2024-07-24T22:21:03.565Z</time>
      </trkpt>
      <trkpt lat="42.8822" lon="-0.02458">
        <ele>872.5</ele>
        <time>2024-07-24T22:21:18.414Z</time>
      </trkpt>
      <trkpt lat="42.88237" lon="-0.0248">
        <ele>874.8</ele>
        <time>2024-07-24T22:21:27.147Z</time>
      </trkpt>
      <trkpt lat="42.88258" lon="-0.02522">
        <ele>879.9</ele>
        <time>2024-07-24T22:21:43.091Z</time>
      </trkpt>
      <trkpt lat="42.88322" lon="-0.02617">
        <ele>890.4</ele>
        <time>2024-07-24T22:22:19.968Z</time>
      </trkpt>
      <trkpt lat="42.88346" lon="-0.02659">
        <ele>893.5</ele>
        <time>2024-07-24T22:22:33.608Z</time>
      </trkpt>
      <trkpt lat="42.88353" lon="-0.02668">
        <ele>893.2</ele>
        <time>2024-07-24T22:22:35.974Z</time>
        <extensions>
          <visugpx:TrkExtension xmlns:visugpx="https://www.visugpx.com/editgpx/">
            <visugpx:node>14</visugpx:node>
            </visugpx:TrkExtension>
        </extensions>
      </trkpt>
      <trkpt lat="42.8837" lon="-0.02685">
        <ele>890.4</ele>
        <time>2024-07-24T22:22:40.958Z</time>
      </trkpt>
      <trkpt lat="42.88374" lon="-0.02695">
        <ele>891</ele>
        <time>2024-07-24T22:22:43.802Z</time>
      </trkpt>
      <trkpt lat="42.88376" lon="-0.02707">
        <ele>892.6</ele>
        <time>2024-07-24T22:22:48.292Z</time>
      </trkpt>
      <trkpt lat="42.88377" lon="-0.02734">
        <ele>897.6</ele>
        <time>2024-07-24T22:23:01.574Z</time>
      </trkpt>
      <trkpt lat="42.88383" lon="-0.02749">
        <ele>898.7</ele>
        <time>2024-07-24T22:23:06.078Z</time>
      </trkpt>
      <trkpt lat="42.88404" lon="-0.02767">
        <ele>897.3</ele>
        <time>2024-07-24T22:23:11.943Z</time>
      </trkpt>
      <trkpt lat="42.88438" lon="-0.02821">
        <ele>907.8</ele>
        <time>2024-07-24T22:23:40.430Z</time>
      </trkpt>
      <trkpt lat="42.88461" lon="-0.02852">
        <ele>908.4</ele>
        <time>2024-07-24T22:23:49.687Z</time>
      </trkpt>
      <trkpt lat="42.88482" lon="-0.02873">
        <ele>905.8</ele>
        <time>2024-07-24T22:23:55.844Z</time>
      </trkpt>
      <trkpt lat="42.88506" lon="-0.02894">
        <ele>905.8</ele>
        <time>2024-07-24T22:24:03.550Z</time>
      </trkpt>
      <trkpt lat="42.88529" lon="-0.02924">
        <ele>914</ele>
        <time>2024-07-24T22:24:25.352Z</time>
      </trkpt>
      <trkpt lat="42.88567" lon="-0.03002">
        <ele>932.5</ele>
        <time>2024-07-24T22:25:14.734Z</time>
      </trkpt>
      <trkpt lat="42.88578" lon="-0.03013">
        <ele>933.3</ele>
        <time>2024-07-24T22:25:19.179Z</time>
      </trkpt>
      <trkpt lat="42.88589" lon="-0.0302">
        <ele>933.2</ele>
        <time>2024-07-24T22:25:22.378Z</time>
        <extensions>
          <visugpx:TrkExtension xmlns:visugpx="https://www.visugpx.com/editgpx/">
            <visugpx:node>15</visugpx:node>
            </visugpx:TrkExtension>
        </extensions>
      </trkpt>
      <trkpt lat="42.88618" lon="-0.03039">
        <ele>935.6</ele>
        <time>2024-07-24T22:25:33.438Z</time>
      </trkpt>
      <trkpt lat="42.88634" lon="-0.03041">
        <ele>934.4</ele>
        <time>2024-07-24T22:25:37.238Z</time>
      </trkpt>
      <trkpt lat="42.8868" lon="-0.03032">
        <ele>928.8</ele>
        <time>2024-07-24T22:25:48.228Z</time>
      </trkpt>
      <trkpt lat="42.88688" lon="-0.03036">
        <ele>929.7</ele>
        <time>2024-07-24T22:25:51.488Z</time>
      </trkpt>
      <trkpt lat="42.8869" lon="-0.0305">
        <ele>933.7</ele>
        <time>2024-07-24T22:26:03.460Z</time>
      </trkpt>
      <trkpt lat="42.88686" lon="-0.03065">
        <ele>938.4</ele>
        <time>2024-07-24T22:26:17.862Z</time>
      </trkpt>
      <trkpt lat="42.88678" lon="-0.03072">
        <ele>941.3</ele>
        <time>2024-07-24T22:26:25.793Z</time>
      </trkpt>
      <trkpt lat="42.88631" lon="-0.0307">
        <ele>945.6</ele>
        <time>2024-07-24T22:26:42.918Z</time>
      </trkpt>
      <trkpt lat="42.88588" lon="-0.03075">
        <ele>957.8</ele>
        <time>2024-07-24T22:27:15.709Z</time>
      </trkpt>
      <trkpt lat="42.88577" lon="-0.03069">
        <ele>958.3</ele>
        <time>2024-07-24T22:27:19.368Z</time>
      </trkpt>
      <trkpt lat="42.88568" lon="-0.03071">
        <ele>962.2</ele>
        <time>2024-07-24T22:27:31.657Z</time>
        <extensions>
          <visugpx:TrkExtension xmlns:visugpx="https://www.visugpx.com/editgpx/">
            <visugpx:node>16</visugpx:node>
            </visugpx:TrkExtension>
        </extensions>
      </trkpt>
      <trkpt lat="42.88566" lon="-0.03083">
        <ele>968.5</ele>
        <time>2024-07-24T22:27:44.452Z</time>
      </trkpt>
      <trkpt lat="42.88571" lon="-0.03091">
        <ele>970.3</ele>
        <time>2024-07-24T22:27:49.238Z</time>
      </trkpt>
      <trkpt lat="42.88632" lon="-0.0309">
        <ele>952.9</ele>
        <time>2024-07-24T22:28:03.665Z</time>
      </trkpt>
      <trkpt lat="42.8864" lon="-0.03093">
        <ele>952.4</ele>
        <time>2024-07-24T22:28:05.627Z</time>
      </trkpt>
      <trkpt lat="42.88683" lon="-0.03133">
        <ele>960.2</ele>
        <time>2024-07-24T22:28:28.987Z</time>
      </trkpt>
      <trkpt lat="42.88723" lon="-0.03159">
        <ele>961</ele>
        <time>2024-07-24T22:28:41.654Z</time>
      </trkpt>
      <trkpt lat="42.88731" lon="-0.03168">
        <ele>962.1</ele>
        <time>2024-07-24T22:28:45.627Z</time>
      </trkpt>
      <trkpt lat="42.88746" lon="-0.03201">
        <ele>968.1</ele>
        <time>2024-07-24T22:29:01.764Z</time>
      </trkpt>
      <trkpt lat="42.8876" lon="-0.03216">
        <ele>969.7</ele>
        <time>2024-07-24T22:29:08.211Z</time>
      </trkpt>
      <trkpt lat="42.8877" lon="-0.0322">
        <ele>969.4</ele>
        <time>2024-07-24T22:29:10.793Z</time>
      </trkpt>
      <trkpt lat="42.88815" lon="-0.03199">
        <ele>970.3</ele>
        <time>2024-07-24T22:29:24.427Z</time>
      </trkpt>
      <trkpt lat="42.88822" lon="-0.03199">
        <ele>971.5</ele>
        <time>2024-07-24T22:29:27.834Z</time>
      </trkpt>
      <trkpt lat="42.88825" lon="-0.03201">
        <ele>972.2</ele>
        <time>2024-07-24T22:29:29.718Z</time>
        <extensions>
          <visugpx:TrkExtension xmlns:visugpx="https://www.visugpx.com/editgpx/">
            <visugpx:node>17</visugpx:node>
            </visugpx:TrkExtension>
        </extensions>
      </trkpt>
      <trkpt lat="42.88831" lon="-0.0322">
        <ele>975.4</ele>
        <time>2024-07-24T22:29:38.323Z</time>
      </trkpt>
      <trkpt lat="42.88829" lon="-0.0323">
        <ele>976.6</ele>
        <time>2024-07-24T22:29:41.837Z</time>
      </trkpt>
      <trkpt lat="42.88822" lon="-0.03237">
        <ele>976.9</ele>
        <time>2024-07-24T22:29:44.451Z</time>
      </trkpt>
      <trkpt lat="42.88799" lon="-0.03246">
        <ele>976.6</ele>
        <time>2024-07-24T22:29:50.675Z</time>
      </trkpt>
      <trkpt lat="42.88788" lon="-0.03268">
        <ele>981.4</ele>
        <time>2024-07-24T22:30:03.419Z</time>
      </trkpt>
      <trkpt lat="42.8878" lon="-0.03272">
        <ele>982.4</ele>
        <time>2024-07-24T22:30:06.818Z</time>
      </trkpt>
      <trkpt lat="42.8877" lon="-0.03272">
        <ele>983.7</ele>
        <time>2024-07-24T22:30:10.991Z</time>
      </trkpt>
      <trkpt lat="42.88717" lon="-0.03239">
        <ele>985.7</ele>
        <time>2024-07-24T22:30:28.532Z</time>
      </trkpt>
      <trkpt lat="42.88705" lon="-0.03238">
        <ele>988.2</ele>
        <time>2024-07-24T22:30:35.271Z</time>
      </trkpt>
      <trkpt lat="42.8867" lon="-0.03245">
        <ele>996.6</ele>
        <time>2024-07-24T22:30:57.587Z</time>
      </trkpt>
      <trkpt lat="42.88656" lon="-0.03246">
        <ele>999.7</ele>
        <time>2024-07-24T22:31:05.869Z</time>
      </trkpt>
      <trkpt lat="42.88645" lon="-0.03239">
        <ele>999.3</ele>
        <time>2024-07-24T22:31:08.839Z</time>
      </trkpt>
      <trkpt lat="42.88634" lon="-0.03235">
        <ele>1000.4</ele>
        <time>2024-07-24T22:31:13.059Z</time>
      </trkpt>
      <trkpt lat="42.88625" lon="-0.03237">
        <ele>1003.6</ele>
        <time>2024-07-24T22:31:22.260Z</time>
      </trkpt>
      <trkpt lat="42.88623" lon="-0.03244">
        <ele>1006.8</ele>
        <time>2024-07-24T22:31:30.071Z</time>
      </trkpt>
      <trkpt lat="42.88624" lon="-0.03248">
        <ele>1007.8</ele>
        <time>2024-07-24T22:31:32.854Z</time>
        <extensions>
          <visugpx:TrkExtension xmlns:visugpx="https://www.visugpx.com/editgpx/">
            <visugpx:node>18</visugpx:node>
            </visugpx:TrkExtension>
        </extensions>
      </trkpt>
      <trkpt lat="42.88625" lon="-0.03252">
        <ele>1009.2</ele>
        <time>2024-07-24T22:31:37.248Z</time>
      </trkpt>
      <trkpt lat="42.88694" lon="-0.03285">
        <ele>1006.4</ele>
        <time>2024-07-24T22:31:54.860Z</time>
      </trkpt>
      <trkpt lat="42.88709" lon="-0.03298">
        <ele>1006.7</ele>
        <time>2024-07-24T22:31:59.922Z</time>
      </trkpt>
      <trkpt lat="42.88733" lon="-0.03343">
        <ele>1012.6</ele>
        <time>2024-07-24T22:32:17.879Z</time>
      </trkpt>
      <trkpt lat="42.88748" lon="-0.03367">
        <ele>1012.9</ele>
        <time>2024-07-24T22:32:24.383Z</time>
      </trkpt>
      <trkpt lat="42.88757" lon="-0.03378">
        <ele>1012.6</ele>
        <time>2024-07-24T22:32:27.411Z</time>
      </trkpt>
      <trkpt lat="42.88776" lon="-0.03392">
        <ele>1010.3</ele>
        <time>2024-07-24T22:32:32.518Z</time>
      </trkpt>
      <trkpt lat="42.88777" lon="-0.03396">
        <ele>1010.8</ele>
        <time>2024-07-24T22:32:33.969Z</time>
        <extensions>
          <visugpx:TrkExtension xmlns:visugpx="https://www.visugpx.com/editgpx/">
            <visugpx:node>19</visugpx:node>
            </visugpx:TrkExtension>
        </extensions>
      </trkpt>
      <trkpt lat="42.88779" lon="-0.034">
        <ele>1011.8</ele>
        <time>2024-07-24T22:32:36.655Z</time>
      </trkpt>
      <trkpt lat="42.88778" lon="-0.03407">
        <ele>1013.6</ele>
        <time>2024-07-24T22:32:41.790Z</time>
      </trkpt>
      <trkpt lat="42.88771" lon="-0.03411">
        <ele>1016.5</ele>
        <time>2024-07-24T22:32:50.463Z</time>
      </trkpt>
      <trkpt lat="42.88763" lon="-0.03407">
        <ele>1017.8</ele>
        <time>2024-07-24T22:32:54.326Z</time>
      </trkpt>
      <trkpt lat="42.88735" lon="-0.0338">
        <ele>1020.3</ele>
        <time>2024-07-24T22:33:06.047Z</time>
      </trkpt>
      <trkpt lat="42.8872" lon="-0.0337">
        <ele>1022.9</ele>
        <time>2024-07-24T22:33:13.706Z</time>
      </trkpt>
      <trkpt lat="42.88708" lon="-0.03365">
        <ele>1025.1</ele>
        <time>2024-07-24T22:33:19.903Z</time>
      </trkpt>
      <trkpt lat="42.8869" lon="-0.03361">
        <ele>1029.3</ele>
        <time>2024-07-24T22:33:31.080Z</time>
      </trkpt>
      <trkpt lat="42.88666" lon="-0.03353">
        <ele>1033.8</ele>
        <time>2024-07-24T22:33:43.606Z</time>
      </trkpt>
      <trkpt lat="42.88627" lon="-0.03332">
        <ele>1037</ele>
        <time>2024-07-24T22:33:58.105Z</time>
      </trkpt>
      <trkpt lat="42.88585" lon="-0.03302">
        <ele>1039.3</ele>
        <time>2024-07-24T22:34:13.051Z</time>
      </trkpt>
      <trkpt lat="42.88549" lon="-0.0327">
        <ele>1040.9</ele>
        <time>2024-07-24T22:34:26.108Z</time>
      </trkpt>
      <trkpt lat="42.8854" lon="-0.0327">
        <ele>1043.5</ele>
        <time>2024-07-24T22:34:33.125Z</time>
      </trkpt>
      <trkpt lat="42.88534" lon="-0.03276">
        <ele>1046.8</ele>
        <time>2024-07-24T22:34:43.666Z</time>
      </trkpt>
      <trkpt lat="42.88534" lon="-0.03283">
        <ele>1048.6</ele>
        <time>2024-07-24T22:34:48.841Z</time>
        <extensions>
          <visugpx:TrkExtension xmlns:visugpx="https://www.visugpx.com/editgpx/">
            <visugpx:node>20</visugpx:node>
            </visugpx:TrkExtension>
        </extensions>
      </trkpt>
      <trkpt lat="42.88538" lon="-0.03295">
        <ele>1051.2</ele>
        <time>2024-07-24T22:34:55.780Z</time>
      </trkpt>
      <trkpt lat="42.88595" lon="-0.03344">
        <ele>1050.8</ele>
        <time>2024-07-24T22:35:13.659Z</time>
      </trkpt>
      <trkpt lat="42.88608" lon="-0.03364">
        <ele>1053.9</ele>
        <time>2024-07-24T22:35:22.730Z</time>
      </trkpt>
      <trkpt lat="42.88637" lon="-0.03419">
        <ele>1062.4</ele>
        <time>2024-07-24T22:35:46.872Z</time>
      </trkpt>
      <trkpt lat="42.88655" lon="-0.03461">
        <ele>1067.4</ele>
        <time>2024-07-24T22:36:02.317Z</time>
      </trkpt>
      <trkpt lat="42.88703" lon="-0.03552">
        <ele>1075.8</ele>
        <time>2024-07-24T22:36:33.381Z</time>
      </trkpt>
      <trkpt lat="42.88716" lon="-0.03568">
        <ele>1078</ele>
        <time>2024-07-24T22:36:40.574Z</time>
      </trkpt>
      <trkpt lat="42.88766" lon="-0.03614">
        <ele>1082.5</ele>
        <time>2024-07-24T22:37:01.308Z</time>
      </trkpt>
      <trkpt lat="42.88788" lon="-0.03638">
        <ele>1085.9</ele>
        <time>2024-07-24T22:37:12.676Z</time>
      </trkpt>
      <trkpt lat="42.88806" lon="-0.03654">
        <ele>1088.5</ele>
        <time>2024-07-24T22:37:21.357Z</time>
        <extensions>
          <visugpx:TrkExtension xmlns:visugpx="https://www.visugpx.com/editgpx/">
            <visugpx:node>21</visugpx:node>
            </visugpx:TrkExtension>
        </extensions>
      </trkpt>
      <trkpt lat="42.88819" lon="-0.0366">
        <ele>1090.6</ele>
        <time>2024-07-24T22:37:27.589Z</time>
      </trkpt>
      <trkpt lat="42.88831" lon="-0.03661">
        <ele>1091</ele>
        <time>2024-07-24T22:37:31.197Z</time>
      </trkpt>
      <trkpt lat="42.88846" lon="-0.03659">
        <ele>1092.2</ele>
        <time>2024-07-24T22:37:36.468Z</time>
      </trkpt>
      <trkpt lat="42.8886" lon="-0.03655">
        <ele>1093</ele>
        <time>2024-07-24T22:37:41.089Z</time>
      </trkpt>
      <trkpt lat="42.88875" lon="-0.03645">
        <ele>1093</ele>
        <time>2024-07-24T22:37:45.601Z</time>
      </trkpt>
      <trkpt lat="42.88925" lon="-0.03629">
        <ele>1098.3</ele>
        <time>2024-07-24T22:38:05.084Z</time>
      </trkpt>
      <trkpt lat="42.88966" lon="-0.03612">
        <ele>1099.4</ele>
        <time>2024-07-24T22:38:17.634Z</time>
      </trkpt>
      <trkpt lat="42.88975" lon="-0.0361">
        <ele>1099.9</ele>
        <time>2024-07-24T22:38:20.569Z</time>
      </trkpt>
      <trkpt lat="42.89012" lon="-0.0361">
        <ele>1104.4</ele>
        <time>2024-07-24T22:38:35.552Z</time>
        <extensions>
          <visugpx:TrkExtension xmlns:visugpx="https://www.visugpx.com/editgpx/">
            <visugpx:node>22</visugpx:node>
            </visugpx:TrkExtension>
        </extensions>
      </trkpt>
      <trkpt lat="42.89064" lon="-0.03618">
        <ele>1111.9</ele>
        <time>2024-07-24T22:38:58.480Z</time>
      </trkpt>
      <trkpt lat="42.891" lon="-0.03618">
        <ele>1116.2</ele>
        <time>2024-07-24T22:39:12.945Z</time>
      </trkpt>
      <trkpt lat="42.89144" lon="-0.03615">
        <ele>1120.7</ele>
        <time>2024-07-24T22:39:29.597Z</time>
      </trkpt>
      <trkpt lat="42.89167" lon="-0.03618">
        <ele>1124.5</ele>
        <time>2024-07-24T22:39:40.549Z</time>
      </trkpt>
      <trkpt lat="42.89186" lon="-0.03623">
        <ele>1127.4</ele>
        <time>2024-07-24T22:39:49.234Z</time>
      </trkpt>
      <trkpt lat="42.89212" lon="-0.03633">
        <ele>1130.2</ele>
        <time>2024-07-24T22:39:59.499Z</time>
      </trkpt>
      <trkpt lat="42.89264" lon="-0.03649">
        <ele>1133.4</ele>
        <time>2024-07-24T22:40:16.954Z</time>
      </trkpt>
      <trkpt lat="42.89277" lon="-0.03656">
        <ele>1134.3</ele>
        <time>2024-07-24T22:40:21.597Z</time>
      </trkpt>
      <trkpt lat="42.89283" lon="-0.03662">
        <ele>1135.5</ele>
        <time>2024-07-24T22:40:25.081Z</time>
        <extensions>
          <visugpx:TrkExtension xmlns:visugpx="https://www.visugpx.com/editgpx/">
            <visugpx:node>23</visugpx:node>
            </visugpx:TrkExtension>
        </extensions>
      </trkpt>
      <trkpt lat="42.89289" lon="-0.0367">
        <ele>1137.6</ele>
        <time>2024-07-24T22:40:30.658Z</time>
      </trkpt>
      <trkpt lat="42.8929" lon="-0.03676">
        <ele>1139.6</ele>
        <time>2024-07-24T22:40:37.046Z</time>
      </trkpt>
      <trkpt lat="42.89289" lon="-0.03679">
        <ele>1140.7</ele>
        <time>2024-07-24T22:40:40.473Z</time>
      </trkpt>
      <trkpt lat="42.89283" lon="-0.03683">
        <ele>1142.8</ele>
        <time>2024-07-24T22:40:46.266Z</time>
      </trkpt>
      <trkpt lat="42.89273" lon="-0.03684">
        <ele>1143.9</ele>
        <time>2024-07-24T22:40:50.158Z</time>
      </trkpt>
      <trkpt lat="42.89248" lon="-0.0368">
        <ele>1144.3</ele>
        <time>2024-07-24T22:40:57.306Z</time>
      </trkpt>
      <trkpt lat="42.89238" lon="-0.0368">
        <ele>1144.1</ele>
        <time>2024-07-24T22:40:59.849Z</time>
      </trkpt>
      <trkpt lat="42.89231" lon="-0.03682">
        <ele>1144.6</ele>
        <time>2024-07-24T22:41:02.270Z</time>
      </trkpt>
      <trkpt lat="42.89138" lon="-0.03747">
        <ele>1154.2</ele>
        <time>2024-07-24T22:41:40.379Z</time>
      </trkpt>
      <trkpt lat="42.89087" lon="-0.0378">
        <ele>1161.2</ele>
        <time>2024-07-24T22:42:03.432Z</time>
      </trkpt>
      <trkpt lat="42.89025" lon="-0.03811">
        <ele>1167.9</ele>
        <time>2024-07-24T22:42:28.331Z</time>
      </trkpt>
      <trkpt lat="42.88951" lon="-0.03842">
        <ele>1170.8</ele>
        <time>2024-07-24T22:42:51.875Z</time>
      </trkpt>
      <trkpt lat="42.88941" lon="-0.03849">
        <ele>1171.6</ele>
        <time>2024-07-24T22:42:55.695Z</time>
      </trkpt>
      <trkpt lat="42.88937" lon="-0.0386">
        <ele>1174.6</ele>
        <time>2024-07-24T22:43:04.141Z</time>
        <extensions>
          <visugpx:TrkExtension xmlns:visugpx="https://www.visugpx.com/editgpx/">
            <visugpx:node>24</visugpx:node>
            </visugpx:TrkExtension>
        </extensions>
      </trkpt>
      <trkpt lat="42.8894" lon="-0.03865">
        <ele>1176.6</ele>
        <time>2024-07-24T22:43:10.411Z</time>
      </trkpt>
      <trkpt lat="42.88947" lon="-0.03867">
        <ele>1178.3</ele>
        <time>2024-07-24T22:43:14.927Z</time>
      </trkpt>
      <trkpt lat="42.88983" lon="-0.03855">
        <ele>1179.5</ele>
        <time>2024-07-24T22:43:26.015Z</time>
      </trkpt>
      <trkpt lat="42.89024" lon="-0.03858">
        <ele>1187</ele>
        <time>2024-07-24T22:43:46.874Z</time>
      </trkpt>
      <trkpt lat="42.89104" lon="-0.03847">
        <ele>1192.3</ele>
        <time>2024-07-24T22:44:13.724Z</time>
      </trkpt>
      <trkpt lat="42.89171" lon="-0.03867">
        <ele>1198.5</ele>
        <time>2024-07-24T22:44:38.611Z</time>
      </trkpt>
      <trkpt lat="42.892" lon="-0.03874">
        <ele>1201.6</ele>
        <time>2024-07-24T22:44:49.865Z</time>
      </trkpt>
      <trkpt lat="42.89222" lon="-0.03874">
        <ele>1203.6</ele>
        <time>2024-07-24T22:44:57.862Z</time>
      </trkpt>
      <trkpt lat="42.89263" lon="-0.0387">
        <ele>1208.1</ele>
        <time>2024-07-24T22:45:13.805Z</time>
      </trkpt>
      <trkpt lat="42.89279" lon="-0.0387">
        <ele>1210.4</ele>
        <time>2024-07-24T22:45:20.826Z</time>
      </trkpt>
      <trkpt lat="42.89308" lon="-0.03876">
        <ele>1216.5</ele>
        <time>2024-07-24T22:45:37.270Z</time>
      </trkpt>
      <trkpt lat="42.89338" lon="-0.0389">
        <ele>1222.9</ele>
        <time>2024-07-24T22:45:54.624Z</time>
      </trkpt>
      <trkpt lat="42.89408" lon="-0.03933">
        <ele>1227.9</ele>
        <time>2024-07-24T22:46:20.191Z</time>
      </trkpt>
      <trkpt lat="42.89431" lon="-0.03943">
        <ele>1226.8</ele>
        <time>2024-07-24T22:46:25.899Z</time>
      </trkpt>
      <trkpt lat="42.89469" lon="-0.03972">
        <ele>1229.7</ele>
        <time>2024-07-24T22:46:40.471Z</time>
      </trkpt>
      <trkpt lat="42.89564" lon="-0.04074">
        <ele>1245.6</ele>
        <time>2024-07-24T22:47:31.200Z</time>
      </trkpt>
      <trkpt lat="42.89593" lon="-0.04102">
        <ele>1249.9</ele>
        <time>2024-07-24T22:47:45.555Z</time>
      </trkpt>
      <trkpt lat="42.89612" lon="-0.04118">
        <ele>1251.5</ele>
        <time>2024-07-24T22:47:53.156Z</time>
      </trkpt>
      <trkpt lat="42.89668" lon="-0.04154">
        <ele>1258.8</ele>
        <time>2024-07-24T22:48:17.894Z</time>
      </trkpt>
      <trkpt lat="42.89676" lon="-0.04162">
        <ele>1260.6</ele>
        <time>2024-07-24T22:48:22.910Z</time>
      </trkpt>
      <trkpt lat="42.89685" lon="-0.04181">
        <ele>1262.2</ele>
        <time>2024-07-24T22:48:29.053Z</time>
      </trkpt>
      <trkpt lat="42.89688" lon="-0.04195">
        <ele>1262.5</ele>
        <time>2024-07-24T22:48:32.207Z</time>
        <extensions>
          <visugpx:TrkExtension xmlns:visugpx="https://www.visugpx.com/editgpx/">
            <visugpx:node>25</visugpx:node>
            </visugpx:TrkExtension>
        </extensions>
      </trkpt>
      <trkpt lat="42.89688" lon="-0.04214">
        <ele>1263.7</ele>
        <time>2024-07-24T22:48:37.186Z</time>
      </trkpt>
      <trkpt lat="42.89682" lon="-0.04226">
        <ele>1264.5</ele>
        <time>2024-07-24T22:48:40.852Z</time>
      </trkpt>
      <trkpt lat="42.89657" lon="-0.0425">
        <ele>1267.4</ele>
        <time>2024-07-24T22:48:52.116Z</time>
      </trkpt>
      <trkpt lat="42.89648" lon="-0.0426">
        <ele>1269.4</ele>
        <time>2024-07-24T22:48:57.783Z</time>
      </trkpt>
      <trkpt lat="42.89644" lon="-0.04268">
        <ele>1270.6</ele>
        <time>2024-07-24T22:49:01.207Z</time>
      </trkpt>
      <trkpt lat="42.89638" lon="-0.04288">
        <ele>1272.6</ele>
        <time>2024-07-24T22:49:07.727Z</time>
      </trkpt>
      <trkpt lat="42.89638" lon="-0.04311">
        <ele>1273.4</ele>
        <time>2024-07-24T22:49:13.021Z</time>
      </trkpt>
      <trkpt lat="42.89649" lon="-0.04372">
        <ele>1274.9</ele>
        <time>2024-07-24T22:49:26.801Z</time>
      </trkpt>
      <trkpt lat="42.89666" lon="-0.04435">
        <ele>1277.2</ele>
        <time>2024-07-24T22:49:42.219Z</time>
      </trkpt>
      <trkpt lat="42.89704" lon="-0.04515">
        <ele>1280.8</ele>
        <time>2024-07-24T22:50:04.459Z</time>
      </trkpt>
      <trkpt lat="42.89708" lon="-0.04527">
        <ele>1281.5</ele>
        <time>2024-07-24T22:50:07.756Z</time>
      </trkpt>
      <trkpt lat="42.89713" lon="-0.04549">
        <ele>1281.8</ele>
        <time>2024-07-24T22:50:12.576Z</time>
      </trkpt>
      <trkpt lat="42.89713" lon="-0.04561">
        <ele>1282.5</ele>
        <time>2024-07-24T22:50:15.651Z</time>
      </trkpt>
      <trkpt lat="42.89711" lon="-0.04569">
        <ele>1283.5</ele>
        <time>2024-07-24T22:50:18.553Z</time>
      </trkpt>
      <trkpt lat="42.89706" lon="-0.04572">
        <ele>1285.4</ele>
        <time>2024-07-24T22:50:23.995Z</time>
      </trkpt>
      <trkpt lat="42.89701" lon="-0.0457">
        <ele>1287</ele>
        <time>2024-07-24T22:50:28.378Z</time>
        <extensions>
          <visugpx:TrkExtension xmlns:visugpx="https://www.visugpx.com/editgpx/">
            <visugpx:node>26</visugpx:node>
            </visugpx:TrkExtension>
        </extensions>
      </trkpt>
      <trkpt lat="42.89697" lon="-0.04561">
        <ele>1288.3</ele>
        <time>2024-07-24T22:50:32.091Z</time>
      </trkpt>
      <trkpt lat="42.89692" lon="-0.04533">
        <ele>1287.3</ele>
        <time>2024-07-24T22:50:37.084Z</time>
      </trkpt>
      <trkpt lat="42.89687" lon="-0.04518">
        <ele>1286.4</ele>
        <time>2024-07-24T22:50:39.939Z</time>
      </trkpt>
      <trkpt lat="42.8968" lon="-0.04506">
        <ele>1286.2</ele>
        <time>2024-07-24T22:50:42.816Z</time>
      </trkpt>
      <trkpt lat="42.89649" lon="-0.04471">
        <ele>1288.5</ele>
        <time>2024-07-24T22:50:55.866Z</time>
      </trkpt>
      <trkpt lat="42.89637" lon="-0.04454">
        <ele>1289.4</ele>
        <time>2024-07-24T22:51:01.381Z</time>
      </trkpt>
      <trkpt lat="42.89625" lon="-0.04435">
        <ele>1290.6</ele>
        <time>2024-07-24T22:51:07.506Z</time>
      </trkpt>
      <trkpt lat="42.89611" lon="-0.04399">
        <ele>1289.9</ele>
        <time>2024-07-24T22:51:15.022Z</time>
      </trkpt>
      <trkpt lat="42.89603" lon="-0.04398">
        <ele>1292.8</ele>
        <time>2024-07-24T22:51:23.465Z</time>
        <extensions>
          <visugpx:TrkExtension xmlns:visugpx="https://www.visugpx.com/editgpx/">
            <visugpx:node>27</visugpx:node>
            </visugpx:TrkExtension>
        </extensions>
      </trkpt>
      <trkpt lat="42.89599" lon="-0.04403">
        <ele>1295.1</ele>
        <time>2024-07-24T22:51:30.687Z</time>
      </trkpt>
      <trkpt lat="42.89598" lon="-0.04407">
        <ele>1296.1</ele>
        <time>2024-07-24T22:51:33.470Z</time>
      </trkpt>
      <trkpt lat="42.896" lon="-0.04417">
        <ele>1297</ele>
        <time>2024-07-24T22:51:36.511Z</time>
      </trkpt>
      <trkpt lat="42.8963" lon="-0.04471">
        <ele>1295</ele>
        <time>2024-07-24T22:51:48.401Z</time>
      </trkpt>
      <trkpt lat="42.89643" lon="-0.04513">
        <ele>1298.6</ele>
        <time>2024-07-24T22:52:01.279Z</time>
      </trkpt>
      <trkpt lat="42.89663" lon="-0.046">
        <ele>1302.9</ele>
        <time>2024-07-24T22:52:23.471Z</time>
      </trkpt>
      <trkpt lat="42.89663" lon="-0.04608">
        <ele>1303.2</ele>
        <time>2024-07-24T22:52:25.335Z</time>
      </trkpt>
      <trkpt lat="42.89658" lon="-0.04615">
        <ele>1305.3</ele>
        <time>2024-07-24T22:52:31.021Z</time>
      </trkpt>
      <trkpt lat="42.89653" lon="-0.04615">
        <ele>1307.1</ele>
        <time>2024-07-24T22:52:36.255Z</time>
      </trkpt>
      <trkpt lat="42.89649" lon="-0.04611">
        <ele>1308.4</ele>
        <time>2024-07-24T22:52:39.715Z</time>
        <extensions>
          <visugpx:TrkExtension xmlns:visugpx="https://www.visugpx.com/editgpx/">
            <visugpx:node>28</visugpx:node>
            </visugpx:TrkExtension>
        </extensions>
      </trkpt>
      <trkpt lat="42.89645" lon="-0.04602">
        <ele>1309.2</ele>
        <time>2024-07-24T22:52:42.646Z</time>
      </trkpt>
      <trkpt lat="42.89636" lon="-0.04566">
        <ele>1309.1</ele>
        <time>2024-07-24T22:52:50.096Z</time>
      </trkpt>
      <trkpt lat="42.89617" lon="-0.04528">
        <ele>1310.1</ele>
        <time>2024-07-24T22:53:00.093Z</time>
      </trkpt>
      <trkpt lat="42.896" lon="-0.04501">
        <ele>1310.8</ele>
        <time>2024-07-24T22:53:07.761Z</time>
      </trkpt>
      <trkpt lat="42.89556" lon="-0.04464">
        <ele>1319</ele>
        <time>2024-07-24T22:53:31.730Z</time>
      </trkpt>
      <trkpt lat="42.89534" lon="-0.04431">
        <ele>1322.4</ele>
        <time>2024-07-24T22:53:44.166Z</time>
      </trkpt>
      <trkpt lat="42.89508" lon="-0.04386">
        <ele>1326</ele>
        <time>2024-07-24T22:53:59.160Z</time>
      </trkpt>
      <trkpt lat="42.89495" lon="-0.04371">
        <ele>1327.4</ele>
        <time>2024-07-24T22:54:05.167Z</time>
      </trkpt>
      <trkpt lat="42.89481" lon="-0.04362">
        <ele>1329.2</ele>
        <time>2024-07-24T22:54:11.316Z</time>
      </trkpt>
      <trkpt lat="42.89468" lon="-0.04357">
        <ele>1330.3</ele>
        <time>2024-07-24T22:54:16.069Z</time>
      </trkpt>
      <trkpt lat="42.89452" lon="-0.04356">
        <ele>1331.8</ele>
        <time>2024-07-24T22:54:21.947Z</time>
        <extensions>
          <visugpx:TrkExtension xmlns:visugpx="https://www.visugpx.com/editgpx/">
            <visugpx:node>29</visugpx:node>
            </visugpx:TrkExtension>
        </extensions>
      </trkpt>
      <trkpt lat="42.89434" lon="-0.04359">
        <ele>1333.4</ele>
        <time>2024-07-24T22:54:28.478Z</time>
      </trkpt>
      <trkpt lat="42.89425" lon="-0.04365">
        <ele>1334.5</ele>
        <time>2024-07-24T22:54:32.367Z</time>
      </trkpt>
      <trkpt lat="42.89408" lon="-0.04379">
        <ele>1336.5</ele>
        <time>2024-07-24T22:54:39.835Z</time>
      </trkpt>
      <trkpt lat="42.89388" lon="-0.04392">
        <ele>1338.5</ele>
        <time>2024-07-24T22:54:47.870Z</time>
      </trkpt>
      <trkpt lat="42.89357" lon="-0.04421">
        <ele>1343.8</ele>
        <time>2024-07-24T22:55:04.198Z</time>
      </trkpt>
      <trkpt lat="42.8935" lon="-0.04425">
        <ele>1344.7</ele>
        <time>2024-07-24T22:55:07.238Z</time>
      </trkpt>
      <trkpt lat="42.89313" lon="-0.04424">
        <ele>1346.4</ele>
        <time>2024-07-24T22:55:18.807Z</time>
      </trkpt>
      <trkpt lat="42.89291" lon="-0.04421">
        <ele>1347.7</ele>
        <time>2024-07-24T22:55:26.018Z</time>
      </trkpt>
      <trkpt lat="42.8927" lon="-0.04406">
        <ele>1346.6</ele>
        <time>2024-07-24T22:55:31.623Z</time>
      </trkpt>
      <trkpt lat="42.89262" lon="-0.04403">
        <ele>1347.1</ele>
        <time>2024-07-24T22:55:34.342Z</time>
      </trkpt>
      <trkpt lat="42.89254" lon="-0.04404">
        <ele>1348.7</ele>
        <time>2024-07-24T22:55:38.693Z</time>
      </trkpt>
      <trkpt lat="42.8925" lon="-0.04409">
        <ele>1350.8</ele>
        <time>2024-07-24T22:55:45.013Z</time>
        <extensions>
          <visugpx:TrkExtension xmlns:visugpx="https://www.visugpx.com/editgpx/">
            <visugpx:node>30</visugpx:node>
            </visugpx:TrkExtension>
        </extensions>
      </trkpt>
      <trkpt lat="42.89249" lon="-0.04415">
        <ele>1352.7</ele>
        <time>2024-07-24T22:55:50.963Z</time>
      </trkpt>
      <trkpt lat="42.89253" lon="-0.04422">
        <ele>1354.3</ele>
        <time>2024-07-24T22:55:55.211Z</time>
      </trkpt>
      <trkpt lat="42.89285" lon="-0.0444">
        <ele>1353.7</ele>
        <time>2024-07-24T22:56:04.085Z</time>
      </trkpt>
      <trkpt lat="42.89337" lon="-0.04477">
        <ele>1356.1</ele>
        <time>2024-07-24T22:56:22.121Z</time>
      </trkpt>
      <trkpt lat="42.89364" lon="-0.0452">
        <ele>1364.9</ele>
        <time>2024-07-24T22:56:45.766Z</time>
      </trkpt>
      <trkpt lat="42.89372" lon="-0.0453">
        <ele>1366.4</ele>
        <time>2024-07-24T22:56:50.432Z</time>
      </trkpt>
      <trkpt lat="42.89416" lon="-0.04563">
        <ele>1367</ele>
        <time>2024-07-24T22:57:04.513Z</time>
      </trkpt>
      <trkpt lat="42.89426" lon="-0.04573">
        <ele>1367.5</ele>
        <time>2024-07-24T22:57:08.319Z</time>
      </trkpt>
      <trkpt lat="42.89431" lon="-0.04581">
        <ele>1368.4</ele>
        <time>2024-07-24T22:57:11.386Z</time>
      </trkpt>
      <trkpt lat="42.89437" lon="-0.046">
        <ele>1370.9</ele>
        <time>2024-07-24T22:57:18.583Z</time>
      </trkpt>
      <trkpt lat="42.89441" lon="-0.04628">
        <ele>1374.6</ele>
        <time>2024-07-24T22:57:28.974Z</time>
      </trkpt>
      <trkpt lat="42.89441" lon="-0.04656">
        <ele>1378.9</ele>
        <time>2024-07-24T22:57:40.550Z</time>
      </trkpt>
      <trkpt lat="42.89444" lon="-0.04673">
        <ele>1380.3</ele>
        <time>2024-07-24T22:57:45.515Z</time>
      </trkpt>
      <trkpt lat="42.89475" lon="-0.04741">
        <ele>1380.4</ele>
        <time>2024-07-24T22:58:01.457Z</time>
      </trkpt>
      <trkpt lat="42.89498" lon="-0.04786">
        <ele>1379.1</ele>
        <time>2024-07-24T22:58:11.312Z</time>
      </trkpt>
      <trkpt lat="42.89503" lon="-0.04806">
        <ele>1381.4</ele>
        <time>2024-07-24T22:58:18.227Z</time>
        <extensions>
          <visugpx:TrkExtension xmlns:visugpx="https://www.visugpx.com/editgpx/">
            <visugpx:node>31</visugpx:node>
            </visugpx:TrkExtension>
        </extensions>
      </trkpt>
      <trkpt lat="42.89504" lon="-0.04827">
        <ele>1383.9</ele>
        <time>2024-07-24T22:58:25.472Z</time>
      </trkpt>
      <trkpt lat="42.8949" lon="-0.04882">
        <ele>1392.4</ele>
        <time>2024-07-24T22:58:48.583Z</time>
      </trkpt>
      <trkpt lat="42.89482" lon="-0.04899">
        <ele>1394.2</ele>
        <time>2024-07-24T22:58:54.577Z</time>
      </trkpt>
      <trkpt lat="42.89474" lon="-0.04909">
        <ele>1396.6</ele>
        <time>2024-07-24T22:59:00.988Z</time>
      </trkpt>
      <trkpt lat="42.89459" lon="-0.04934">
        <ele>1399.4</ele>
        <time>2024-07-24T22:59:10.461Z</time>
      </trkpt>
      <trkpt lat="42.89439" lon="-0.04977">
        <ele>1399.9</ele>
        <time>2024-07-24T22:59:20.974Z</time>
      </trkpt>
      <trkpt lat="42.89362" lon="-0.0509">
        <ele>1409.2</ele>
        <time>2024-07-24T23:00:00.871Z</time>
      </trkpt>
      <trkpt lat="42.89346" lon="-0.05107">
        <ele>1410.9</ele>
        <time>2024-07-24T23:00:08.065Z</time>
      </trkpt>
      <trkpt lat="42.89324" lon="-0.05118">
        <ele>1415</ele>
        <time>2024-07-24T23:00:19.623Z</time>
        <extensions>
          <visugpx:TrkExtension xmlns:visugpx="https://www.visugpx.com/editgpx/">
            <visugpx:node>32</visugpx:node>
            </visugpx:TrkExtension>
        </extensions>
      </trkpt>
      <trkpt lat="42.89281" lon="-0.05139">
        <ele>1423.8</ele>
        <time>2024-07-24T23:00:43.741Z</time>
      </trkpt>
      <trkpt lat="42.89268" lon="-0.05153">
        <ele>1424.8</ele>
        <time>2024-07-24T23:00:49.169Z</time>
      </trkpt>
      <trkpt lat="42.8923" lon="-0.05213">
        <ele>1426.1</ele>
        <time>2024-07-24T23:01:06.010Z</time>
      </trkpt>
      <trkpt lat="42.89218" lon="-0.05238">
        <ele>1427.3</ele>
        <time>2024-07-24T23:01:13.058Z</time>
      </trkpt>
      <trkpt lat="42.89211" lon="-0.0526">
        <ele>1427.6</ele>
        <time>2024-07-24T23:01:18.066Z</time>
      </trkpt>
      <trkpt lat="42.892" lon="-0.05277">
        <ele>1430.1</ele>
        <time>2024-07-24T23:01:25.541Z</time>
      </trkpt>
      <trkpt lat="42.89188" lon="-0.0529">
        <ele>1433.2</ele>
        <time>2024-07-24T23:01:33.942Z</time>
      </trkpt>
      <trkpt lat="42.89145" lon="-0.05321">
        <ele>1440.2</ele>
        <time>2024-07-24T23:01:55.297Z</time>
      </trkpt>
      <trkpt lat="42.89117" lon="-0.05349">
        <ele>1442.6</ele>
        <time>2024-07-24T23:02:07.015Z</time>
      </trkpt>
      <trkpt lat="42.8911" lon="-0.05357">
        <ele>1442.4</ele>
        <time>2024-07-24T23:02:09.323Z</time>
      </trkpt>
      <trkpt lat="42.8911" lon="-0.05361">
        <ele>1442.2</ele>
        <time>2024-07-24T23:02:10.016Z</time>
        <extensions>
          <visugpx:TrkExtension xmlns:visugpx="https://www.visugpx.com/editgpx/">
            <visugpx:node>33</visugpx:node>
            </visugpx:TrkExtension>
        </extensions>
      </trkpt>
      <trkpt lat="42.8911" lon="-0.05377">
        <ele>1443.2</ele>
        <time>2024-07-24T23:02:14.196Z</time>
      </trkpt>
      <trkpt lat="42.89118" lon="-0.05384">
        <ele>1444.3</ele>
        <time>2024-07-24T23:02:17.965Z</time>
      </trkpt>
      <trkpt lat="42.89199" lon="-0.05381">
        <ele>1447</ele>
        <time>2024-07-24T23:02:42.284Z</time>
        <extensions>
          <visugpx:TrkExtension xmlns:visugpx="https://www.visugpx.com/editgpx/">
            <visugpx:node>34</visugpx:node>
            </visugpx:TrkExtension>
        </extensions>
      </trkpt>
      <trkpt lat="42.89205" lon="-0.05383">
        <ele>1447.4</ele>
        <time>2024-07-24T23:02:44.338Z</time>
      </trkpt>
      <trkpt lat="42.89207" lon="-0.05391">
        <ele>1449.3</ele>
        <time>2024-07-24T23:02:49.542Z</time>
      </trkpt>
      <trkpt lat="42.89205" lon="-0.05399">
        <ele>1450.7</ele>
        <time>2024-07-24T23:02:53.273Z</time>
      </trkpt>
      <trkpt lat="42.892" lon="-0.05403">
        <ele>1451.4</ele>
        <time>2024-07-24T23:02:55.613Z</time>
      </trkpt>
      <trkpt lat="42.89176" lon="-0.05407">
        <ele>1451.8</ele>
        <time>2024-07-24T23:03:02.493Z</time>
      </trkpt>
      <trkpt lat="42.89161" lon="-0.05417">
        <ele>1452.9</ele>
        <time>2024-07-24T23:03:08.067Z</time>
      </trkpt>
      <trkpt lat="42.89141" lon="-0.05434">
        <ele>1455.2</ele>
        <time>2024-07-24T23:03:16.833Z</time>
      </trkpt>
      <trkpt lat="42.8912" lon="-0.05459">
        <ele>1457.4</ele>
        <time>2024-07-24T23:03:26.557Z</time>
      </trkpt>
      <trkpt lat="42.89105" lon="-0.05474">
        <ele>1459.1</ele>
        <time>2024-07-24T23:03:33.328Z</time>
      </trkpt>
      <trkpt lat="42.89082" lon="-0.0549">
        <ele>1461.1</ele>
        <time>2024-07-24T23:03:42.291Z</time>
      </trkpt>
      <trkpt lat="42.89056" lon="-0.05515">
        <ele>1464.3</ele>
        <time>2024-07-24T23:03:54.248Z</time>
      </trkpt>
      <trkpt lat="42.89039" lon="-0.05535">
        <ele>1466.8</ele>
        <time>2024-07-24T23:04:03.012Z</time>
      </trkpt>
      <trkpt lat="42.89005" lon="-0.05588">
        <ele>1472.9</ele>
        <time>2024-07-24T23:04:23.657Z</time>
      </trkpt>
      <trkpt lat="42.88989" lon="-0.05609">
        <ele>1474.9</ele>
        <time>2024-07-24T23:04:31.704Z</time>
      </trkpt>
      <trkpt lat="42.88972" lon="-0.05627">
        <ele>1477</ele>
        <time>2024-07-24T23:04:39.709Z</time>
      </trkpt>
      <trkpt lat="42.88949" lon="-0.05642">
        <ele>1479.1</ele>
        <time>2024-07-24T23:04:48.708Z</time>
      </trkpt>
      <trkpt lat="42.88925" lon="-0.05654">
        <ele>1481.4</ele>
        <time>2024-07-24T23:04:57.970Z</time>
      </trkpt>
      <trkpt lat="42.88892" lon="-0.05658">
        <ele>1483</ele>
        <time>2024-07-24T23:05:08.407Z</time>
      </trkpt>
      <trkpt lat="42.88885" lon="-0.05664">
        <ele>1484.7</ele>
        <time>2024-07-24T23:05:12.999Z</time>
      </trkpt>
      <trkpt lat="42.88882" lon="-0.05671">
        <ele>1486.6</ele>
        <time>2024-07-24T23:05:18.269Z</time>
        <extensions>
          <visugpx:TrkExtension xmlns:visugpx="https://www.visugpx.com/editgpx/">
            <visugpx:node>35</visugpx:node>
            </visugpx:TrkExtension>
        </extensions>
      </trkpt>
      <trkpt lat="42.88884" lon="-0.05679">
        <ele>1488.5</ele>
        <time>2024-07-24T23:05:23.473Z</time>
      </trkpt>
      <trkpt lat="42.8889" lon="-0.05684">
        <ele>1489.4</ele>
        <time>2024-07-24T23:05:26.386Z</time>
      </trkpt>
      <trkpt lat="42.88903" lon="-0.05688">
        <ele>1490.3</ele>
        <time>2024-07-24T23:05:30.860Z</time>
      </trkpt>
      <trkpt lat="42.88936" lon="-0.0569">
        <ele>1492.6</ele>
        <time>2024-07-24T23:05:42.029Z</time>
      </trkpt>
      <trkpt lat="42.88953" lon="-0.05689">
        <ele>1494.3</ele>
        <time>2024-07-24T23:05:48.411Z</time>
      </trkpt>
      <trkpt lat="42.89054" lon="-0.05661">
        <ele>1502.1</ele>
        <time>2024-07-24T23:06:23.976Z</time>
      </trkpt>
      <trkpt lat="42.89076" lon="-0.05658">
        <ele>1504.2</ele>
        <time>2024-07-24T23:06:32.127Z</time>
      </trkpt>
      <trkpt lat="42.8912" lon="-0.0566">
        <ele>1510.2</ele>
        <time>2024-07-24T23:06:50.926Z</time>
      </trkpt>
      <trkpt lat="42.89133" lon="-0.05658">
        <ele>1511.6</ele>
        <time>2024-07-24T23:06:55.956Z</time>
      </trkpt>
      <trkpt lat="42.89144" lon="-0.05655">
        <ele>1512.9</ele>
        <time>2024-07-24T23:07:00.406Z</time>
      </trkpt>
      <trkpt lat="42.89167" lon="-0.05643">
        <ele>1514.3</ele>
        <time>2024-07-24T23:07:08.385Z</time>
      </trkpt>
      <trkpt lat="42.89174" lon="-0.05641">
        <ele>1513.7</ele>
        <time>2024-07-24T23:07:10.076Z</time>
      </trkpt>
      <trkpt lat="42.89187" lon="-0.05642">
        <ele>1514.1</ele>
        <time>2024-07-24T23:07:13.952Z</time>
      </trkpt>
      <trkpt lat="42.89199" lon="-0.05646">
        <ele>1515.3</ele>
        <time>2024-07-24T23:07:18.540Z</time>
      </trkpt>
      <trkpt lat="42.89208" lon="-0.05653">
        <ele>1517.4</ele>
        <time>2024-07-24T23:07:24.229Z</time>
      </trkpt>
      <trkpt lat="42.8922" lon="-0.05657">
        <ele>1518.3</ele>
        <time>2024-07-24T23:07:28.451Z</time>
      </trkpt>
      <trkpt lat="42.89234" lon="-0.05656">
        <ele>1521.2</ele>
        <time>2024-07-24T23:07:36.277Z</time>
      </trkpt>
      <trkpt lat="42.8926" lon="-0.05626">
        <ele>1520</ele>
        <time>2024-07-24T23:07:44.552Z</time>
      </trkpt>
      <trkpt lat="42.89272" lon="-0.05617">
        <ele>1521</ele>
        <time>2024-07-24T23:07:49.235Z</time>
      </trkpt>
      <trkpt lat="42.89285" lon="-0.0561">
        <ele>1521.6</ele>
        <time>2024-07-24T23:07:53.561Z</time>
      </trkpt>
      <trkpt lat="42.89298" lon="-0.05605">
        <ele>1521.4</ele>
        <time>2024-07-24T23:07:57.050Z</time>
      </trkpt>
      <trkpt lat="42.89309" lon="-0.05603">
        <ele>1521.8</ele>
        <time>2024-07-24T23:08:00.410Z</time>
      </trkpt>
      <trkpt lat="42.89327" lon="-0.05606">
        <ele>1523.6</ele>
        <time>2024-07-24T23:08:07.196Z</time>
        <extensions>
          <visugpx:TrkExtension xmlns:visugpx="https://www.visugpx.com/editgpx/">
            <visugpx:node>36</visugpx:node>
            </visugpx:TrkExtension>
        </extensions>
      </trkpt>
      <trkpt lat="42.89329" lon="-0.05607">
        <ele>1524</ele>
        <time>2024-07-24T23:08:08.299Z</time>
      </trkpt>
      <trkpt lat="42.89328" lon="-0.05622">
        <ele>1530.9</ele>
        <time>2024-07-24T23:08:23.957Z</time>
      </trkpt>
      <trkpt lat="42.89306" lon="-0.05619">
        <ele>1528.7</ele>
        <time>2024-07-24T23:08:29.186Z</time>
      </trkpt>
      <trkpt lat="42.893" lon="-0.0562">
        <ele>1528.2</ele>
        <time>2024-07-24T23:08:30.616Z</time>
      </trkpt>
      <trkpt lat="42.89286" lon="-0.0563">
        <ele>1529.6</ele>
        <time>2024-07-24T23:08:36.314Z</time>
      </trkpt>
      <trkpt lat="42.89273" lon="-0.05643">
        <ele>1530.8</ele>
        <time>2024-07-24T23:08:41.853Z</time>
      </trkpt>
      <trkpt lat="42.89264" lon="-0.05654">
        <ele>1531.2</ele>
        <time>2024-07-24T23:08:45.476Z</time>
      </trkpt>
      <trkpt lat="42.89251" lon="-0.05686">
        <ele>1537.1</ele>
        <time>2024-07-24T23:09:01.246Z</time>
      </trkpt>
      <trkpt lat="42.89246" lon="-0.05693">
        <ele>1538.7</ele>
        <time>2024-07-24T23:09:05.516Z</time>
      </trkpt>
      <trkpt lat="42.89238" lon="-0.05696">
        <ele>1538.6</ele>
        <time>2024-07-24T23:09:07.677Z</time>
      </trkpt>
      <trkpt lat="42.89214" lon="-0.05694">
        <ele>1535.1</ele>
        <time>2024-07-24T23:09:13.363Z</time>
      </trkpt>
      <trkpt lat="42.89191" lon="-0.05702">
        <ele>1538.6</ele>
        <time>2024-07-24T23:09:23.922Z</time>
      </trkpt>
      <trkpt lat="42.89172" lon="-0.05714">
        <ele>1540.8</ele>
        <time>2024-07-24T23:09:31.917Z</time>
      </trkpt>
      <trkpt lat="42.89123" lon="-0.05758">
        <ele>1549.4</ele>
        <time>2024-07-24T23:09:57.930Z</time>
      </trkpt>
      <trkpt lat="42.89062" lon="-0.05793">
        <ele>1554.7</ele>
        <time>2024-07-24T23:10:21.109Z</time>
      </trkpt>
      <trkpt lat="42.89013" lon="-0.05806">
        <ele>1558.1</ele>
        <time>2024-07-24T23:10:37.902Z</time>
      </trkpt>
      <trkpt lat="42.89002" lon="-0.05813">
        <ele>1560.4</ele>
        <time>2024-07-24T23:10:44.232Z</time>
      </trkpt>
      <trkpt lat="42.88974" lon="-0.05846">
        <ele>1566.6</ele>
        <time>2024-07-24T23:11:01.976Z</time>
      </trkpt>
      <trkpt lat="42.88964" lon="-0.05852">
        <ele>1567.8</ele>
        <time>2024-07-24T23:11:06.218Z</time>
      </trkpt>
      <trkpt lat="42.88952" lon="-0.05852">
        <ele>1566.5</ele>
        <time>2024-07-24T23:11:09.056Z</time>
      </trkpt>
      <trkpt lat="42.8894" lon="-0.05848">
        <ele>1564.5</ele>
        <time>2024-07-24T23:11:11.978Z</time>
      </trkpt>
      <trkpt lat="42.88928" lon="-0.05847">
        <ele>1564.8</ele>
        <time>2024-07-24T23:11:15.491Z</time>
      </trkpt>
      <trkpt lat="42.88884" lon="-0.05871">
        <ele>1570.3</ele>
        <time>2024-07-24T23:11:34.303Z</time>
      </trkpt>
      <trkpt lat="42.88861" lon="-0.05874">
        <ele>1573.5</ele>
        <time>2024-07-24T23:11:44.248Z</time>
      </trkpt>
      <trkpt lat="42.88843" lon="-0.05874">
        <ele>1574.9</ele>
        <time>2024-07-24T23:11:50.504Z</time>
      </trkpt>
      <trkpt lat="42.88819" lon="-0.05871">
        <ele>1576.8</ele>
        <time>2024-07-24T23:11:58.910Z</time>
      </trkpt>
      <trkpt lat="42.88806" lon="-0.05867">
        <ele>1577.3</ele>
        <time>2024-07-24T23:12:02.964Z</time>
        <extensions>
          <visugpx:TrkExtension xmlns:visugpx="https://www.visugpx.com/editgpx/">
            <visugpx:node>37</visugpx:node>
            </visugpx:TrkExtension>
        </extensions>
      </trkpt>
      <trkpt lat="42.88795" lon="-0.05861">
        <ele>1577.2</ele>
        <time>2024-07-24T23:12:06.084Z</time>
      </trkpt>
      <trkpt lat="42.88784" lon="-0.05858">
        <ele>1578.7</ele>
        <time>2024-07-24T23:12:10.830Z</time>
      </trkpt>
      <trkpt lat="42.88768" lon="-0.05859">
        <ele>1580.4</ele>
        <time>2024-07-24T23:12:16.969Z</time>
      </trkpt>
      <trkpt lat="42.88735" lon="-0.05866">
        <ele>1582.4</ele>
        <time>2024-07-24T23:12:27.900Z</time>
      </trkpt>
      <trkpt lat="42.88727" lon="-0.05871">
        <ele>1583.8</ele>
        <time>2024-07-24T23:12:31.987Z</time>
      </trkpt>
      <trkpt lat="42.88725" lon="-0.0588">
        <ele>1586.4</ele>
        <time>2024-07-24T23:12:39.716Z</time>
        <extensions>
          <visugpx:TrkExtension xmlns:visugpx="https://www.visugpx.com/editgpx/">
            <visugpx:node>38</visugpx:node>
            </visugpx:TrkExtension>
        </extensions>
      </trkpt>
      <trkpt lat="42.88728" lon="-0.05889">
        <ele>1589</ele>
        <time>2024-07-24T23:12:47.266Z</time>
      </trkpt>
      <trkpt lat="42.88737" lon="-0.05891">
        <ele>1589.8</ele>
        <time>2024-07-24T23:12:50.544Z</time>
      </trkpt>
      <trkpt lat="42.8877" lon="-0.05887">
        <ele>1589.1</ele>
        <time>2024-07-24T23:12:58.942Z</time>
      </trkpt>
      <trkpt lat="42.88781" lon="-0.0589">
        <ele>1589.8</ele>
        <time>2024-07-24T23:13:02.644Z</time>
      </trkpt>
      <trkpt lat="42.88802" lon="-0.05906">
        <ele>1591.4</ele>
        <time>2024-07-24T23:13:10.692Z</time>
      </trkpt>
      <trkpt lat="42.88828" lon="-0.05921">
        <ele>1595.6</ele>
        <time>2024-07-24T23:13:23.311Z</time>
      </trkpt>
      <trkpt lat="42.88838" lon="-0.05925">
        <ele>1597.2</ele>
        <time>2024-07-24T23:13:28.053Z</time>
      </trkpt>
      <trkpt lat="42.8887" lon="-0.05924">
        <ele>1595.2</ele>
        <time>2024-07-24T23:13:35.623Z</time>
      </trkpt>
      <trkpt lat="42.88885" lon="-0.05933">
        <ele>1596.6</ele>
        <time>2024-07-24T23:13:41.468Z</time>
      </trkpt>
      <trkpt lat="42.88894" lon="-0.05941">
        <ele>1600.7</ele>
        <time>2024-07-24T23:13:53.724Z</time>
      </trkpt>
      <trkpt lat="42.88904" lon="-0.05943">
        <ele>1603.7</ele>
        <time>2024-07-24T23:14:01.870Z</time>
      </trkpt>
      <trkpt lat="42.88918" lon="-0.05938">
        <ele>1604.8</ele>
        <time>2024-07-24T23:14:06.869Z</time>
      </trkpt>
      <trkpt lat="42.88946" lon="-0.05937">
        <ele>1607.3</ele>
        <time>2024-07-24T23:14:16.993Z</time>
      </trkpt>
      <trkpt lat="42.88964" lon="-0.05932">
        <ele>1608.2</ele>
        <time>2024-07-24T23:14:22.793Z</time>
      </trkpt>
      <trkpt lat="42.89009" lon="-0.05906">
        <ele>1608.9</ele>
        <time>2024-07-24T23:14:36.602Z</time>
      </trkpt>
      <trkpt lat="42.89013" lon="-0.05905">
        <ele>1609</ele>
        <time>2024-07-24T23:14:37.789Z</time>
      </trkpt>
      <trkpt lat="42.89019" lon="-0.05907">
        <ele>1610.4</ele>
        <time>2024-07-24T23:14:41.519Z</time>
      </trkpt>
      <trkpt lat="42.89021" lon="-0.05913">
        <ele>1613.2</ele>
        <time>2024-07-24T23:14:48.372Z</time>
      </trkpt>
      <trkpt lat="42.89019" lon="-0.05922">
        <ele>1617.1</ele>
        <time>2024-07-24T23:14:58.150Z</time>
      </trkpt>
      <trkpt lat="42.89016" lon="-0.05926">
        <ele>1618.2</ele>
        <time>2024-07-24T23:15:01.078Z</time>
        <extensions>
          <visugpx:TrkExtension xmlns:visugpx="https://www.visugpx.com/editgpx/">
            <visugpx:node>39</visugpx:node>
            </visugpx:TrkExtension>
        </extensions>
      </trkpt>
      <trkpt lat="42.89013" lon="-0.05929">
        <ele>1619.1</ele>
        <time>2024-07-24T23:15:03.468Z</time>
      </trkpt>
      <trkpt lat="42.89" lon="-0.05934">
        <ele>1617.9</ele>
        <time>2024-07-24T23:15:06.662Z</time>
      </trkpt>
      <trkpt lat="42.88977" lon="-0.05949">
        <ele>1617.3</ele>
        <time>2024-07-24T23:15:13.077Z</time>
      </trkpt>
      <trkpt lat="42.88929" lon="-0.05983">
        <ele>1619.8</ele>
        <time>2024-07-24T23:15:29.999Z</time>
      </trkpt>
      <trkpt lat="42.88916" lon="-0.05998">
        <ele>1620.5</ele>
        <time>2024-07-24T23:15:35.238Z</time>
      </trkpt>
      <trkpt lat="42.88905" lon="-0.06004">
        <ele>1621.3</ele>
        <time>2024-07-24T23:15:39.216Z</time>
      </trkpt>
      <trkpt lat="42.88867" lon="-0.06006">
        <ele>1621</ele>
        <time>2024-07-24T23:15:49.249Z</time>
      </trkpt>
      <trkpt lat="42.88855" lon="-0.06009">
        <ele>1621.8</ele>
        <time>2024-07-24T23:15:53.318Z</time>
      </trkpt>
      <trkpt lat="42.8885" lon="-0.06021">
        <ele>1623.9</ele>
        <time>2024-07-24T23:15:58.981Z</time>
        <extensions>
          <visugpx:TrkExtension xmlns:visugpx="https://www.visugpx.com/editgpx/">
            <visugpx:node>40</visugpx:node>
            </visugpx:TrkExtension>
        </extensions>
      </trkpt>
      <trkpt lat="42.88853" lon="-0.06032">
        <ele>1626</ele>
        <time>2024-07-24T23:16:04.556Z</time>
      </trkpt>
      <trkpt lat="42.88859" lon="-0.06033">
        <ele>1626.3</ele>
        <time>2024-07-24T23:16:06.469Z</time>
      </trkpt>
      <trkpt lat="42.8888" lon="-0.06023">
        <ele>1624.6</ele>
        <time>2024-07-24T23:16:11.729Z</time>
      </trkpt>
      <trkpt lat="42.88888" lon="-0.06023">
        <ele>1624.8</ele>
        <time>2024-07-24T23:16:14.067Z</time>
      </trkpt>
      <trkpt lat="42.88911" lon="-0.06032">
        <ele>1629.5</ele>
        <time>2024-07-24T23:16:26.888Z</time>
      </trkpt>
      <trkpt lat="42.8892" lon="-0.06031">
        <ele>1630.6</ele>
        <time>2024-07-24T23:16:30.547Z</time>
      </trkpt>
      <trkpt lat="42.88926" lon="-0.06028">
        <ele>1631.1</ele>
        <time>2024-07-24T23:16:32.771Z</time>
      </trkpt>
      <trkpt lat="42.88961" lon="-0.05996">
        <ele>1630.1</ele>
        <time>2024-07-24T23:16:43.366Z</time>
      </trkpt>
      <trkpt lat="42.88972" lon="-0.05996">
        <ele>1631.7</ele>
        <time>2024-07-24T23:16:48.224Z</time>
        <extensions>
          <visugpx:TrkExtension xmlns:visugpx="https://www.visugpx.com/editgpx/">
            <visugpx:node>41</visugpx:node>
            </visugpx:TrkExtension>
        </extensions>
      </trkpt>
      <trkpt lat="42.88975" lon="-0.05996">
        <ele>1633.7</ele>
        <time>2024-07-24T23:16:52.481Z</time>
      </trkpt>
      <trkpt lat="42.88979" lon="-0.06001">
        <ele>1638</ele>
        <time>2024-07-24T23:17:00.177Z</time>
      </trkpt>
      <trkpt lat="42.88977" lon="-0.06014">
        <ele>1641.4</ele>
        <time>2024-07-24T23:17:09.934Z</time>
      </trkpt>
      <trkpt lat="42.88969" lon="-0.06022">
        <ele>1640.1</ele>
        <time>2024-07-24T23:17:12.279Z</time>
      </trkpt>
      <trkpt lat="42.88953" lon="-0.06033">
        <ele>1639.4</ele>
        <time>2024-07-24T23:17:16.585Z</time>
      </trkpt>
      <trkpt lat="42.88938" lon="-0.06048">
        <ele>1640.4</ele>
        <time>2024-07-24T23:17:22.549Z</time>
      </trkpt>
      <trkpt lat="42.88929" lon="-0.06064">
        <ele>1642.7</ele>
        <time>2024-07-24T23:17:29.326Z</time>
      </trkpt>
      <trkpt lat="42.88919" lon="-0.06072">
        <ele>1641.6</ele>
        <time>2024-07-24T23:17:32.068Z</time>
      </trkpt>
      <trkpt lat="42.88886" lon="-0.06084">
        <ele>1644</ele>
        <time>2024-07-24T23:17:43.640Z</time>
      </trkpt>
      <trkpt lat="42.88827" lon="-0.06114">
        <ele>1649.9</ele>
        <time>2024-07-24T23:18:06.750Z</time>
      </trkpt>
      <trkpt lat="42.88811" lon="-0.06121">
        <ele>1651.8</ele>
        <time>2024-07-24T23:18:13.350Z</time>
      </trkpt>
      <trkpt lat="42.88798" lon="-0.06121">
        <ele>1652.2</ele>
        <time>2024-07-24T23:18:17.220Z</time>
      </trkpt>
      <trkpt lat="42.88785" lon="-0.06116">
        <ele>1652.1</ele>
        <time>2024-07-24T23:18:20.788Z</time>
      </trkpt>
      <trkpt lat="42.88743" lon="-0.06111">
        <ele>1656.2</ele>
        <time>2024-07-24T23:18:36.454Z</time>
      </trkpt>
      <trkpt lat="42.88737" lon="-0.06107">
        <ele>1657</ele>
        <time>2024-07-24T23:18:39.141Z</time>
      </trkpt>
      <trkpt lat="42.88736" lon="-0.06101">
        <ele>1656.9</ele>
        <time>2024-07-24T23:18:40.280Z</time>
        <extensions>
          <visugpx:TrkExtension xmlns:visugpx="https://www.visugpx.com/editgpx/">
            <visugpx:node>42</visugpx:node>
            </visugpx:TrkExtension>
        </extensions>
      </trkpt>
      <trkpt lat="42.88734" lon="-0.06095">
        <ele>1657</ele>
        <time>2024-07-24T23:18:41.672Z</time>
      </trkpt>
      <trkpt lat="42.88737" lon="-0.06068">
        <ele>1655.4</ele>
        <time>2024-07-24T23:18:46.404Z</time>
      </trkpt>
      <trkpt lat="42.88736" lon="-0.0605">
        <ele>1655</ele>
        <time>2024-07-24T23:18:49.667Z</time>
      </trkpt>
      <trkpt lat="42.88732" lon="-0.06045">
        <ele>1655.5</ele>
        <time>2024-07-24T23:18:51.647Z</time>
      </trkpt>
      <trkpt lat="42.88725" lon="-0.06045">
        <ele>1657.8</ele>
        <time>2024-07-24T23:18:58.088Z</time>
      </trkpt>
      <trkpt lat="42.8872" lon="-0.0605">
        <ele>1660.8</ele>
        <time>2024-07-24T23:19:06.883Z</time>
        <extensions>
          <visugpx:TrkExtension xmlns:visugpx="https://www.visugpx.com/editgpx/">
            <visugpx:node>43</visugpx:node>
            </visugpx:TrkExtension>
        </extensions>
      </trkpt>
      <trkpt lat="42.88718" lon="-0.06058">
        <ele>1662.9</ele>
        <time>2024-07-24T23:19:12.835Z</time>
      </trkpt>
      <trkpt lat="42.88718" lon="-0.0609">
        <ele>1662.2</ele>
        <time>2024-07-24T23:19:18.625Z</time>
      </trkpt>
      <trkpt lat="42.88711" lon="-0.06102">
        <ele>1663.4</ele>
        <time>2024-07-24T23:19:22.943Z</time>
      </trkpt>
      <trkpt lat="42.88702" lon="-0.06112">
        <ele>1664.4</ele>
        <time>2024-07-24T23:19:27.093Z</time>
      </trkpt>
      <trkpt lat="42.88678" lon="-0.06125">
        <ele>1669.1</ele>
        <time>2024-07-24T23:19:40.178Z</time>
      </trkpt>
      <trkpt lat="42.88673" lon="-0.06133">
        <ele>1669.4</ele>
        <time>2024-07-24T23:19:42.533Z</time>
      </trkpt>
      <trkpt lat="42.88678" lon="-0.06148">
        <ele>1669.9</ele>
        <time>2024-07-24T23:19:46.252Z</time>
      </trkpt>
      <trkpt lat="42.88686" lon="-0.06152">
        <ele>1669.5</ele>
        <time>2024-07-24T23:19:48.267Z</time>
      </trkpt>
      <trkpt lat="42.88714" lon="-0.06156">
        <ele>1667.5</ele>
        <time>2024-07-24T23:19:54.925Z</time>
      </trkpt>
      <trkpt lat="42.88728" lon="-0.06166">
        <ele>1667.8</ele>
        <time>2024-07-24T23:19:59.456Z</time>
      </trkpt>
      <trkpt lat="42.88729" lon="-0.06174">
        <ele>1668.8</ele>
        <time>2024-07-24T23:20:02.315Z</time>
      </trkpt>
      <trkpt lat="42.88727" lon="-0.06183">
        <ele>1670.5</ele>
        <time>2024-07-24T23:20:06.828Z</time>
      </trkpt>
      <trkpt lat="42.88722" lon="-0.06187">
        <ele>1672</ele>
        <time>2024-07-24T23:20:10.817Z</time>
      </trkpt>
      <trkpt lat="42.88717" lon="-0.06187">
        <ele>1672.8</ele>
        <time>2024-07-24T23:20:13.148Z</time>
        <extensions>
          <visugpx:TrkExtension xmlns:visugpx="https://www.visugpx.com/editgpx/">
            <visugpx:node>44</visugpx:node>
            </visugpx:TrkExtension>
        </extensions>
      </trkpt>
      <trkpt lat="42.8869" lon="-0.06179">
        <ele>1675.2</ele>
        <time>2024-07-24T23:20:23.053Z</time>
      </trkpt>
      <trkpt lat="42.88645" lon="-0.06162">
        <ele>1677.7</ele>
        <time>2024-07-24T23:20:38.018Z</time>
      </trkpt>
      <trkpt lat="42.88636" lon="-0.06156">
        <ele>1679</ele>
        <time>2024-07-24T23:20:42.195Z</time>
      </trkpt>
      <trkpt lat="42.88632" lon="-0.06143">
        <ele>1679.6</ele>
        <time>2024-07-24T23:20:45.556Z</time>
      </trkpt>
      <trkpt lat="42.88633" lon="-0.06122">
        <ele>1682</ele>
        <time>2024-07-24T23:20:52.628Z</time>
      </trkpt>
      <trkpt lat="42.88638" lon="-0.06106">
        <ele>1683.4</ele>
        <time>2024-07-24T23:20:57.577Z</time>
      </trkpt>
      <trkpt lat="42.88648" lon="-0.06091">
        <ele>1684.3</ele>
        <time>2024-07-24T23:21:02.452Z</time>
      </trkpt>
      <trkpt lat="42.88664" lon="-0.06078">
        <ele>1684.1</ele>
        <time>2024-07-24T23:21:07.322Z</time>
      </trkpt>
      <trkpt lat="42.88673" lon="-0.06068">
        <ele>1682</ele>
        <time>2024-07-24T23:21:10.066Z</time>
      </trkpt>
      <trkpt lat="42.88675" lon="-0.06058">
        <ele>1682.2</ele>
        <time>2024-07-24T23:21:12.295Z</time>
      </trkpt>
      <trkpt lat="42.88672" lon="-0.06048">
        <ele>1682.2</ele>
        <time>2024-07-24T23:21:14.435Z</time>
      </trkpt>
      <trkpt lat="42.88665" lon="-0.06045">
        <ele>1684.7</ele>
        <time>2024-07-24T23:21:21.535Z</time>
        <extensions>
          <visugpx:TrkExtension xmlns:visugpx="https://www.visugpx.com/editgpx/">
            <visugpx:node>45</visugpx:node>
            </visugpx:TrkExtension>
        </extensions>
      </trkpt>
      <trkpt lat="42.88656" lon="-0.06047">
        <ele>1687.1</ele>
        <time>2024-07-24T23:21:27.926Z</time>
      </trkpt>
      <trkpt lat="42.88625" lon="-0.0608">
        <ele>1693</ele>
        <time>2024-07-24T23:21:45.585Z</time>
      </trkpt>
      <trkpt lat="42.88599" lon="-0.06111">
        <ele>1694.1</ele>
        <time>2024-07-24T23:21:55.899Z</time>
      </trkpt>
      <trkpt lat="42.88565" lon="-0.06139">
        <ele>1698.3</ele>
        <time>2024-07-24T23:22:11.100Z</time>
      </trkpt>
      <trkpt lat="42.8854" lon="-0.06162">
        <ele>1701.1</ele>
        <time>2024-07-24T23:22:22.134Z</time>
      </trkpt>
      <trkpt lat="42.88529" lon="-0.06177">
        <ele>1702.9</ele>
        <time>2024-07-24T23:22:28.301Z</time>
      </trkpt>
      <trkpt lat="42.88516" lon="-0.06212">
        <ele>1705.3</ele>
        <time>2024-07-24T23:22:38.489Z</time>
      </trkpt>
      <trkpt lat="42.88509" lon="-0.06223">
        <ele>1707.2</ele>
        <time>2024-07-24T23:22:43.816Z</time>
      </trkpt>
      <trkpt lat="42.88504" lon="-0.06225">
        <ele>1708.6</ele>
        <time>2024-07-24T23:22:47.551Z</time>
        <extensions>
          <visugpx:TrkExtension xmlns:visugpx="https://www.visugpx.com/editgpx/">
            <visugpx:node>46</visugpx:node>
            </visugpx:TrkExtension>
        </extensions>
      </trkpt>
      <trkpt lat="42.88502" lon="-0.06226">
        <ele>1709</ele>
        <time>2024-07-24T23:22:48.655Z</time>
      </trkpt>
      <trkpt lat="42.88497" lon="-0.06218">
        <ele>1709.5</ele>
        <time>2024-07-24T23:22:51.219Z</time>
      </trkpt>
      <trkpt lat="42.88499" lon="-0.062">
        <ele>1709.2</ele>
        <time>2024-07-24T23:22:54.587Z</time>
      </trkpt>
      <trkpt lat="42.88506" lon="-0.06181">
        <ele>1708.1</ele>
        <time>2024-07-24T23:22:58.272Z</time>
      </trkpt>
      <trkpt lat="42.88508" lon="-0.06163">
        <ele>1708.7</ele>
        <time>2024-07-24T23:23:02.429Z</time>
      </trkpt>
      <trkpt lat="42.88505" lon="-0.06142">
        <ele>1711.5</ele>
        <time>2024-07-24T23:23:10.270Z</time>
        <extensions>
          <visugpx:TrkExtension xmlns:visugpx="https://www.visugpx.com/editgpx/">
            <visugpx:node>47</visugpx:node>
            </visugpx:TrkExtension>
        </extensions>
      </trkpt>
    </trkseg>
  </trk>
</gpx>